[{"header": {"dx": 0.06612293990616946, "dy": 0.0552356325346848, "nx": 98, "ny": 59, "la1": 35.046912555036876, "la2": 31.78801023549047, "lo1": -121.43107172385933, "lo2": -114.95102361305473, "refTime": "2026041109", "parameterCategory": 1, "parameterNumber": 2}, "data": [5.86, 5.59, 5.93, 5.65, 5.06, 4.12, 3.47, 2.16, 1.67, 1.14, 0.57, 0.59, -0.0, -0.0, -0.0, -0.87, -0.87, -0.87, -0.0, -0.0, 1.3, 2.4, 2.07, 1.6, 0.85, 0.76, 0.65, -0.0, -0.0, -1.49, -1.86, -1.7, -1.79, -1.34, 0.45, 1.34, 2.97, 3.95, 3.95, 2.68, 2.68, 3.51, 4.02, 3.58, 4.02, 3.13, 4.47, 4.47, 3.58, 2.8, 3.07, 2.53, 2.73, 3.07, 3.07, 2.79, 3.16, 3.16, 3.22, 3.2, 3.74, 4.66, 6.28, 6.28, 5.6, 6.4, 6.79, 6.79, 6.98, 7.89, 7.89, 6.98, 5.31, 2.68, 2.12, 2.23, 2.8, 2.5, 0.0, -1.4, -1.84, -1.49, -1.55, -1.47, -1.52, 0.0, 0.0, 0.7, 2.2, 4.65, 6.68, 7.64, 8.3, 9.67, 9.3, 9.27, 8.0, 3.39, 5.86, 5.86, 5.59, 5.93, 5.37, 4.75, 3.47, 3.04, 2.16, 1.14, 1.12, 0.78, -0.0, -0.0, -0.0, -1.3, -0.79, -1.27, -0.0, -0.0, -0.0, 1.14, 1.99, 2.4, 0.87, 0.85, 0.57, -0.0, -0.0, -0.0, -0.65, -1.26, -1.2, -0.89, -0.45, 0.0, 1.6, 2.12, 2.17, 2.24, 2.24, 4.02, 4.02, 3.95, 3.04, 4.73, 4.87, 3.58, 2.4, 2.41, 3.07, 3.07, 3.07, 3.48, 2.53, 2.84, 2.84, 3.22, 2.86, 3.2, 3.32, 4.4, 4.8, 5.21, 5.43, 6.94, 7.89, 7.28, 6.55, 6.66, 6.98, 6.55, 5.59, 4.41, 2.24, 2.12, 2.8, 2.5, 0.0, -1.4, -1.84, -1.49, -1.55, -1.47, -1.52, 0.0, 0.0, 0.7, 2.2, 4.65, 6.68, 7.64, 8.3, 9.67, 9.3, 9.27, 8.0, 3.39, 5.86, 5.86, 5.59, 5.59, 5.37, 4.75, 4.12, 3.04, 2.36, 1.67, 1.23, 0.58, -0.0, -0.0, -0.79, -0.79, -1.66, -1.49, -0.71, -0.0, -0.0, -0.0, 1.19, 2.32, 3.22, 2.41, 0.71, -0.0, -0.65, -0.0, -0.0, -0.0, 0.71, 0.63, 0.45, 0.45, 1.34, 1.79, 2.17, 2.17, 2.24, 4.24, 4.66, 4.15, 4.4, 4.93, 3.97, 3.04, 2.21, 2.15, 2.41, 3.16, 3.16, 3.22, 1.9, 1.9, 2.5, 2.86, 3.2, 3.2, 2.8, 2.21, 3.48, 4.46, 5.82, 7.32, 8.67, 8.88, 7.47, 5.31, 4.92, 5.36, 5.77, 5.31, 3.13, 3.51, 2.91, 1.58, -1.2, -3.16, -2.79, -2.07, -1.41, -2.11, -1.3, -0.69, 0.0, 0.0, 2.29, 5.49, 7.59, 8.27, 8.6, 8.6, 8.68, 7.03, 3.51, 2.63, 6.13, 5.86, 5.86, 5.59, 5.06, 5.06, 4.45, 3.47, 2.82, 1.84, 1.14, 0.58, 0.88, -0.0, -0.0, -0.79, -1.49, -1.8, -0.85, -0.0, -0.0, -0.0, -0.0, 1.6, 2.3, 3.22, 1.2, -0.0, -0.65, -0.61, -0.0, -0.0, 1.33, 1.74, 2.23, 1.58, 1.86, 2.12, 2.6, 2.4, 3.2, 3.83, 3.83, 4.8, 5.16, 4.85, 4.02, 2.86, 2.15, 2.21, 2.21, 2.86, 2.86, 2.8, 2.23, 2.21, 2.23, 2.8, 2.8, 2.4, 1.9, 1.4, 2.3, 3.48, 5.37, 6.88, 9.23, 10.47, 9.84, 7.2, 3.13, 2.6, 2.6, 4.02, 3.58, 3.95, 2.91, 1.26, -1.88, -4.43, -3.43, -2.3, -1.49, -2.2, -2.11, -1.35, 0.0, 0.0, 3.09, 6.31, 7.82, 7.59, 7.59, 7.02, 3.83, 2.68, 2.91, 3.32, 5.89, 6.13, 5.86, 5.86, 5.35, 5.06, 4.75, 3.84, 2.82, 2.36, 1.67, 1.05, 0.81, -0.0, -0.0, -0.76, -1.49, -1.8, -1.8, -0.65, -0.0, -0.0, -0.0, 0.71, 0.65, 1.08, 1.99, 0.76, -0.0, -0.61, -0.54, -0.0, 0.54, 3.22, 4.74, 3.79, 2.84, 4.0, 3.13, 2.91, 3.2, 3.32, 3.07, 4.92, 4.92, 4.66, 4.22, 3.58, 2.84, 2.84, 2.86, 3.22, 2.8, 2.23, 2.23, 3.22, 2.8, 3.04, 3.04, 2.23, 1.24, 1.2, 2.41, 2.88, 4.6, 6.2, 8.01, 9.7, 11.38, 11.14, 7.68, 2.91, 2.24, 2.63, 4.87, 3.58, 1.58, 0.0, -1.61, -4.75, -4.74, -2.73, -2.3, -3.07, -3.64, -2.47, 0.0, 1.55, 3.88, 6.2, 6.88, 6.32, 6.01, 2.5, 0.99, 1.61, 3.32, 3.74, 6.1, 5.75, 5.75, 5.86, 5.35, 5.35, 4.75, 4.12, 3.47, 2.82, 1.84, 1.16, 0.81, -0.0, -0.0, -0.54, -0.65, -1.8, -2.53, -1.24, -1.74, -0.0, -0.0, 1.05, 1.08, 0.96, 2.4, 2.4, 0.88, -0.0, -0.0, -0.0, -0.0, 1.74, 3.79, 5.46, 5.82, 5.34, 3.58, 1.79, 1.34, 1.79, 2.8, 4.57, 5.2, 5.43, 4.8, 3.6, 2.6, 2.53, 2.8, 2.4, 2.54, 2.23, 3.6, 4.57, 3.04, 3.04, 2.6, 1.86, 0.71, 0.76, 1.47, 2.18, 3.06, 5.52, 6.71, 7.9, 10.25, 12.56, 12.72, 8.6, 4.65, 5.43, 7.69, 5.43, 0.0, -2.5, -2.5, -3.49, -4.74, -4.36, -3.72, -3.72, -3.79, -2.31, 0.0, 2.28, 4.6, 4.5, 4.71, 5.94, 2.53, -0.0, -0.0, 2.15, 3.53, 3.97, 6.1, 6.0, 5.75, 5.49, 5.29, 5.35, 5.06, 4.45, 3.47, 2.82, 2.36, 1.7, 1.83, 0.87, -0.0, -0.57, -0.85, -1.74, -2.6, -1.6, -1.34, -1.2, -1.26, -0.0, -0.0, 1.14, 1.23, 2.32, 2.16, 2.53, 0.71, 0.57, 0.42, 1.26, 3.16, 4.81, 6.07, 7.81, 3.47, 0.95, -0.0, -0.0, 2.23, 3.79, 4.74, 5.82, 5.09, 3.47, 2.0, 2.84, 3.72, 1.86, 2.12, 2.12, 2.54, 2.68, 2.68, 2.24, 1.34, 0.8, 0.54, 0.76, 1.55, 2.31, 2.9, 3.91, 5.38, 6.05, 8.76, 12.09, 13.76, 11.52, 7.94, 7.06, 9.2, 9.08, 0.63, -3.32, -3.07, -2.53, -3.72, -4.56, -4.46, -4.46, -3.15, -1.36, 0.0, 1.54, 3.21, 4.0, 4.28, 3.55, 0.89, -0.0, 0.65, 2.91, 3.53, 3.32, 6.1, 6.0, 5.75, 5.75, 5.29, 5.01, 5.01, 4.45, 3.84, 3.08, 2.18, 1.7, 1.83, 0.88, -0.0, -0.0, -0.0, -0.85, -1.58, -1.34, -0.89, -1.34, -1.79, -1.7, -0.95, -0.0, -0.0, 1.2, 1.2, 2.23, 2.4, 2.4, 2.4, 3.79, 3.84, 4.8, 6.07, 7.42, 6.36, 2.23, -0.0, -0.0, -0.0, 2.53, 4.4, 6.61, 5.75, 3.22, 1.98, 2.84, 1.86, 2.12, 2.54, 3.47, 2.17, 2.68, 2.24, 1.34, 0.0, -0.0, -0.0, -0.0, 0.74, 2.51, 3.22, 3.72, 4.36, 6.06, 7.68, 11.44, 13.43, 11.83, 8.55, 6.55, 7.56, 8.47, 2.6, -2.24, -3.07, -2.53, -1.84, -4.22, -4.28, -3.44, -2.01, -0.69, 0.0, 1.47, 2.31, 2.2, 1.27, 0.6, -0.0, 0.53, 1.9, 3.07, 3.53, 3.32, 6.3, 6.0, 6.0, 5.75, 5.29, 5.29, 5.01, 4.74, 4.12, 3.49, 2.84, 1.73, 1.3, 1.55, 0.88, 0.98, -0.0, -0.0, -0.0, -0.8, -0.0, 0.45, -0.63, -1.2, -0.89, 0.89, 0.0, 0.45, -0.0, 2.23, 2.23, 1.0, 2.84, 3.72, 4.15, 3.04, 3.13, 4.47, 5.26, 3.04, 1.58, 0.8, 1.26, 2.24, 4.77, 5.75, 4.8, 2.32, 2.47, 2.41, 3.48, 1.79, 3.13, 3.13, 2.24, 2.68, 2.24, 0.89, 0.0, -0.0, -0.0, -0.0, 1.6, 3.35, 3.22, 3.22, 3.83, 6.54, 8.4, 11.18, 12.58, 11.52, 9.26, 6.26, 6.22, 5.77, 2.24, -0.89, -2.5, -2.21, -1.61, -2.66, -3.4, -2.75, -1.4, 0.0, 0.0, 0.0, 0.0, 0.0, 0.0, -0.0, -0.0, 0.71, 2.4, 3.53, 3.53, 3.39, 6.3, 6.23, 5.6, 5.37, 5.58, 5.29, 5.29, 4.43, 4.43, 3.83, 2.84, 2.44, 1.58, 1.76, 1.66, 0.79, 0.98, -0.0, -0.0, -0.0, -0.0, -0.0, -0.0, 0.45, 0.0, 0.45, 0.89, -0.45, 0.0, 1.26, 1.7, 1.34, 0.89, 1.34, 1.79, 5.7, 4.02, 3.13, 3.04, 3.6, 2.5, 1.86, 3.13, 3.95, 5.34, 4.85, 1.66, 0.78, 2.35, 3.72, 3.07, 3.16, 2.54, 1.6, 1.58, 1.86, 1.6, 0.63, -0.0, -0.0, -0.0, 0.78, 3.2, 3.48, 2.84, 3.58, 3.51, 7.12, 8.49, 10.28, 11.18, 10.7, 8.91, 6.71, 5.36, 2.68, 0.0, -1.9, -2.79, -2.53, -1.61, -0.65, -1.41, -1.3, -0.63, 0.0, 0.0, 0.63, 0.0, -0.0, -0.0, 0.71, 0.57, 1.26, 2.4, 3.53, 3.53, 3.53, 6.3, 5.81, 5.6, 5.6, 5.21, 4.94, 4.94, 4.71, 4.43, 4.12, 3.49, 2.86, 2.48, 1.8, 1.8, 0.98, 0.98, 0.51, -0.0, -0.0, -0.0, 0.0, 0.45, 0.45, 1.34, 0.45, 0.89, 0.0, 0.45, 1.34, 2.24, 1.7, 0.63, 0.0, 1.26, 4.47, 5.81, 3.58, 2.8, 3.83, 3.74, 3.04, 4.47, 6.14, 6.14, 3.22, 0.76, 0.81, 1.49, 2.2, 4.12, 3.15, 2.4, 1.2, 0.89, 0.0, 0.0, -0.87, -0.95, -0.0, 0.81, 2.31, 2.29, 2.53, 4.11, 3.74, 4.87, 6.07, 7.06, 8.63, 8.67, 8.67, 8.02, 6.71, 4.02, 1.34, -0.95, -2.21, -3.07, -3.07, -2.5, -0.54, 0.0, 0.0, 0.6, 1.27, 2.4, 2.5, 2.23, 1.49, 1.26, 1.2, 0.95, 1.6, 2.63, 3.58, 3.58, 3.58, 6.04, 5.88, 5.6, 5.6, 5.21, 5.21, 4.94, 4.71, 4.71, 4.71, 4.11, 3.49, 2.86, 2.51, 1.84, 1.16, 1.16, 1.16, 0.65, -0.0, 0.45, 0.45, 0.63, 2.24, 2.24, 2.68, 3.13, 2.68, 1.79, 2.12, 2.68, 2.68, 1.79, 1.2, 1.9, 2.91, 4.02, 3.51, 2.8, 4.4, 4.4, 4.66, 5.31, 6.26, 5.81, 1.52, -0.0, -0.0, 1.18, 2.21, 2.31, 2.37, 1.57, 1.62, 1.56, 1.67, 0.81, -0.89, -2.54, -0.79, 1.56, 2.47, 2.47, 1.72, 3.27, 5.52, 7.08, 5.05, 2.8, 3.84, 4.93, 4.93, 4.93, 3.13, 1.7, -0.45, -2.23, -2.5, -2.6, -2.24, -2.17, -0.95, 0.45, 1.34, 1.9, 2.53, 4.09, 3.6, 3.45, 2.68, 2.12, 0.89, 0.0, 1.34, 3.13, 4.02, 3.58, 2.68, 6.04, 5.88, 5.81, 5.6, 5.21, 5.21, 4.94, 4.71, 4.71, 4.71, 4.11, 3.79, 3.48, 3.16, 2.84, 2.23, 1.88, 1.88, 1.61, 0.57, -0.0, 0.45, 0.63, 1.2, 2.24, 3.13, 4.02, 4.47, 4.92, 4.92, 5.36, 4.92, 4.47, 4.47, 3.04, 3.13, 3.13, 3.2, 3.2, 5.75, 5.82, 6.4, 5.75, 4.84, 3.4, 1.11, -0.0, -0.0, 1.14, 1.2, 0.72, -0.0, -0.0, -0.0, 1.15, 3.32, 5.92, 5.98, 0.88, -1.58, -0.0, 2.28, 1.55, 0.8, 1.54, 3.95, 5.87, 6.21, 4.58, 4.5, 5.64, 3.72, 0.45, -0.89, -1.26, -2.24, -2.4, -2.12, -1.34, -0.63, -0.63, 0.0, 0.45, -0.0, 1.33, 2.79, 4.46, 4.46, 4.12, 5.09, 4.52, 1.34, 0.0, 0.63, 2.6, 3.13, 2.24, 1.34, 6.04, 5.88, 5.81, 5.6, 5.37, 5.21, 4.94, 4.94, 4.71, 4.71, 4.37, 4.11, 4.07, 3.48, 3.43, 2.84, 2.53, 1.88, 2.21, 1.9, 1.26, 0.89, 0.63, 1.6, 2.6, 3.53, 4.47, 4.92, 5.81, 5.81, 5.81, 6.26, 6.26, 5.36, 5.36, 5.36, 4.87, 4.8, 4.8, 5.2, 5.75, 5.43, 5.75, 4.47, 3.17, 2.17, 1.65, -0.0, -0.0, -0.0, -0.0, -0.0, -1.2, -0.0, -0.0, 1.52, 4.8, 7.92, 5.6, -0.0, -0.79, 1.14, -0.0, -0.0, -0.0, 1.53, 2.84, 4.4, 7.32, 7.7, 8.74, 9.42, 2.8, -2.24, -3.13, -2.24, -2.17, -1.34, -0.0, 1.26, 1.58, 1.7, 1.2, -0.0, -0.0, 1.84, 4.43, 5.09, 5.06, 6.96, 8.0, 3.53, 0.95, 0.0, 1.2, 1.79, 0.89, 0.45, 6.04, 6.04, 5.81, 5.6, 5.37, 5.21, 4.94, 4.94, 4.94, 4.71, 4.71, 4.37, 4.41, 4.07, 4.0, 3.43, 2.84, 2.21, 2.5, 2.5, 2.91, 2.6, 1.79, 1.79, 2.17, 3.07, 3.98, 4.89, 5.81, 6.26, 6.71, 6.23, 7.15, 6.26, 6.26, 6.26, 6.14, 5.09, 6.23, 5.34, 6.02, 6.79, 6.23, 5.01, 3.22, 2.26, 2.21, 1.07, -0.0, -0.0, -0.0, -0.0, -0.0, -0.0, -0.0, 1.14, 3.68, 5.41, 5.6, 1.18, -0.0, -0.0, -1.14, -1.11, -0.0, 1.09, 1.13, 3.29, 5.6, 7.69, 6.33, 9.22, 12.09, 3.07, -1.9, -2.23, -1.34, -0.0, 1.26, 2.23, 3.45, 4.15, 3.51, 1.24, -0.0, -0.0, 2.4, 4.56, 6.01, 7.68, 10.23, 7.56, 2.24, 0.89, 1.34, 0.63, 0.63, 0.63, 6.04, 6.04, 5.81, 5.6, 5.37, 5.75, 5.58, 4.94, 4.94, 4.94, 4.71, 4.65, 4.65, 4.65, 4.07, 4.0, 3.43, 2.79, 2.5, 2.5, 3.07, 3.39, 3.53, 2.68, 2.68, 3.13, 3.98, 4.88, 5.81, 6.26, 6.71, 7.13, 6.68, 7.15, 6.26, 5.36, 5.75, 5.59, 6.58, 6.61, 6.02, 5.59, 5.81, 4.65, 3.49, 2.32, 2.4, 1.14, -0.0, -1.18, -1.18, -0.0, -0.0, -0.0, -0.0, -0.0, 1.14, 2.4, 3.7, 2.33, -0.0, -1.07, -3.52, -3.14, -1.14, -0.0, -0.0, 2.39, 5.92, 7.96, 6.14, 7.68, 12.47, 13.43, 6.22, 2.24, 2.17, 2.6, 2.6, 3.51, 6.07, 6.55, 6.51, 3.74, 0.65, -0.7, -0.0, 2.88, 5.3, 7.69, 11.09, 6.55, 2.6, 2.4, 2.6, 1.26, 0.6, 0.6, 6.04, 6.04, 5.81, 5.6, 6.0, 5.75, 5.58, 5.58, 5.21, 5.21, 5.21, 5.01, 4.65, 4.65, 4.65, 4.55, 4.0, 3.35, 2.79, 2.68, 3.39, 3.87, 3.87, 3.53, 3.58, 3.58, 3.98, 4.88, 5.33, 6.23, 6.68, 7.13, 6.68, 7.6, 5.81, 5.81, 5.75, 5.7, 5.26, 6.14, 6.14, 5.09, 5.81, 2.5, 3.49, 3.45, 2.4, 2.4, 1.18, -0.0, -1.3, -0.0, -0.0, -0.0, -0.0, -0.0, 1.19, 2.73, 3.79, 3.76, 1.23, -0.0, -3.68, -3.68, -3.45, -1.6, -1.1, -0.0, 4.8, 9.21, 10.62, 8.67, 10.75, 13.49, 12.94, 10.87, 10.28, 10.8, 9.75, 6.98, 6.66, 6.71, 6.26, 3.07, 0.57, -0.65, -0.0, 2.79, 7.03, 10.75, 12.18, 8.24, 3.53, 3.07, 2.91, 1.58, 0.57, 0.57, 6.16, 6.04, 5.88, 6.0, 6.0, 5.75, 5.75, 5.75, 5.58, 5.21, 5.21, 5.21, 4.65, 4.65, 4.65, 4.55, 4.0, 3.72, 3.35, 3.07, 3.39, 3.53, 3.97, 3.98, 4.02, 3.58, 3.53, 3.98, 4.88, 5.24, 5.78, 6.23, 6.68, 6.68, 6.26, 6.26, 5.81, 6.26, 5.81, 5.2, 2.68, 2.54, 2.54, 3.72, 5.01, 4.47, 3.68, 3.68, 2.49, 1.23, -0.0, -0.0, -0.0, -0.0, -0.0, -0.0, 1.27, 2.48, 2.73, 2.73, 1.3, -0.0, -2.49, -3.45, -3.22, -2.4, -2.76, -1.08, 2.6, 9.2, 13.15, 11.23, 11.84, 12.14, 11.62, 10.29, 12.16, 15.72, 16.55, 13.23, 10.02, 6.71, 3.13, -0.63, -1.2, 0.0, 1.34, 3.2, 5.64, 8.82, 11.4, 9.54, 3.53, 2.24, 2.4, 1.9, 1.24, 1.24, 6.16, 6.04, 6.3, 6.0, 6.0, 5.75, 5.75, 5.75, 5.75, 5.58, 5.21, 5.21, 4.84, 4.84, 4.93, 4.84, 4.17, 4.0, 3.88, 3.6, 3.53, 3.13, 3.07, 3.95, 4.47, 4.02, 2.68, 3.47, 4.38, 4.44, 5.33, 5.78, 6.23, 6.71, 6.71, 6.71, 6.71, 6.71, 7.15, 6.71, 4.92, 4.92, 4.92, 6.14, 5.75, 5.59, 4.75, 4.47, 2.49, 1.23, 1.23, -0.0, -0.0, -0.0, -0.0, 1.41, 1.41, 2.2, 2.98, 2.73, -0.0, -1.23, -2.12, -1.66, -2.6, -3.22, -2.53, -1.0, 2.24, 6.71, 10.28, 10.62, 13.21, 13.96, 11.66, 8.63, 9.54, 13.29, 17.13, 17.5, 9.83, 0.89, -1.7, -1.79, -1.79, -1.26, 0.0, 1.58, 4.47, 5.36, 8.46, 10.49, 4.92, 1.2, 0.71, 1.88, 2.5, 2.5, 6.16, 6.47, 6.3, 6.3, 6.0, 5.75, 5.75, 5.75, 5.75, 5.75, 5.75, 5.21, 5.21, 5.08, 5.08, 5.08, 4.93, 4.55, 4.8, 4.57, 3.9, 2.6, 2.63, 4.02, 4.41, 4.38, 4.02, 3.58, 4.02, 4.47, 4.89, 5.81, 6.26, 6.26, 6.71, 7.15, 7.15, 7.58, 8.47, 8.47, 8.49, 8.05, 7.58, 7.58, 6.79, 6.7, 5.37, 4.47, 2.32, 1.14, -0.0, -0.0, -0.0, -0.0, 0.79, 0.79, 1.19, 1.6, 2.53, 2.48, -0.0, -2.32, -2.32, -2.49, -2.6, -2.53, -1.6, -0.0, 3.13, 6.07, 8.9, 10.25, 12.94, 15.2, 14.3, 10.7, 8.63, 9.54, 15.03, 17.25, 13.99, 1.79, -3.32, -3.53, -2.24, -1.7, -0.95, 0.0, 2.91, 3.39, 5.32, 9.83, 6.26, 0.6, -0.0, 1.88, 2.86, 2.86, 6.6, 6.47, 6.3, 6.3, 6.1, 6.0, 5.75, 5.75, 5.75, 5.75, 5.75, 5.37, 5.21, 5.47, 5.08, 5.08, 5.08, 4.9, 4.8, 5.2, 4.66, 3.39, 3.53, 4.43, 4.89, 5.33, 4.89, 4.47, 4.47, 4.92, 5.36, 5.81, 6.26, 6.71, 7.15, 7.15, 7.6, 8.03, 8.47, 8.92, 8.94, 8.49, 8.47, 8.03, 7.69, 7.76, 5.69, 4.47, 2.16, -0.0, -0.0, -0.0, -0.0, -0.0, 1.05, 1.66, 2.3, 2.53, 2.53, 1.27, -0.0, -2.32, -3.76, -3.49, -2.3, -2.41, -0.99, -0.0, 3.58, 6.02, 8.36, 10.7, 11.98, 13.07, 13.07, 11.62, 8.24, 8.93, 10.52, 12.96, 15.61, 9.83, 0.0, -3.07, -2.68, -1.79, -1.34, 0.0, 1.86, 3.07, 4.4, 7.89, 4.92, 1.26, -0.0, 1.9, 3.32, 3.32, 6.6, 6.47, 6.3, 6.3, 6.1, 6.1, 5.89, 5.75, 5.75, 5.75, 5.75, 5.75, 5.6, 5.6, 5.6, 5.47, 5.31, 5.31, 5.31, 5.09, 5.09, 4.6, 4.77, 5.33, 5.78, 5.81, 5.36, 5.36, 4.92, 5.36, 5.81, 6.23, 6.68, 7.15, 7.15, 7.6, 8.05, 8.05, 8.49, 8.49, 8.49, 8.47, 8.03, 8.03, 7.26, 6.95, 6.52, 4.43, 1.14, -0.0, -0.0, -0.0, -0.0, -0.0, 1.14, 1.14, 2.4, 2.68, 1.2, -0.0, -0.88, -1.49, -2.53, -2.68, -2.41, -1.98, -1.74, -0.0, 0.88, 2.4, 5.72, 10.97, 12.39, 6.36, 4.43, 5.38, 5.64, 5.94, 6.95, 8.11, 11.62, 13.4, 10.75, 3.07, 0.89, -0.0, 0.45, 1.2, 2.68, 3.45, 4.52, 5.32, 4.47, 2.4, 1.26, 2.4, 3.51, 3.51, 6.61, 6.61, 6.51, 6.72, 6.51, 6.51, 6.28, 5.89, 5.75, 5.75, 5.75, 5.75, 6.0, 5.6, 5.6, 5.6, 5.81, 5.81, 5.4, 5.51, 5.09, 5.09, 5.24, 5.33, 5.78, 6.23, 5.81, 5.81, 5.36, 5.36, 5.81, 6.26, 6.68, 7.13, 7.15, 7.6, 8.05, 8.05, 8.49, 8.49, 8.47, 8.47, 8.03, 7.51, 7.21, 6.95, 6.7, 3.76, 1.14, 1.23, 1.23, 1.14, 1.14, -0.0, 1.14, 1.23, 2.29, 2.6, 1.4, -1.58, -2.41, -1.55, -1.55, -1.8, -1.6, -1.6, -1.98, -1.4, -1.66, -0.83, 1.11, 8.66, 8.14, -2.48, -2.48, 1.49, 2.73, 3.47, 4.07, 4.8, 6.32, 9.83, 12.14, 12.14, 8.63, 3.82, 3.13, 2.63, 3.13, 3.51, 3.58, 5.2, 5.02, 3.32, 2.6, 2.68, 3.58, 3.58, 6.61, 6.61, 6.94, 6.79, 6.6, 6.51, 6.51, 6.28, 5.89, 5.89, 5.89, 5.89, 6.1, 6.0, 6.0, 5.6, 5.81, 5.81, 5.81, 5.4, 5.51, 5.09, 5.24, 5.26, 5.78, 6.23, 6.23, 6.23, 5.78, 5.34, 5.81, 6.26, 6.71, 7.15, 7.15, 7.6, 7.6, 8.05, 8.03, 8.47, 8.47, 8.47, 8.03, 7.51, 6.79, 6.41, 7.37, 5.37, 3.2, 2.26, 1.18, 1.23, 1.23, 1.14, 1.14, 1.14, 1.55, 2.29, 2.6, -0.0, -2.53, -2.68, -0.88, -0.79, -0.98, -1.8, -0.87, -1.41, -1.6, -2.41, -0.0, 16.0, 17.38, 3.82, -1.58, 0.0, 3.22, 3.45, 2.98, 2.83, 3.33, 5.72, 8.84, 10.73, 10.7, 8.94, 4.92, 3.13, 2.5, 3.07, 4.4, 5.31, 6.8, 5.44, 3.13, 2.68, 3.13, 3.13, 7.06, 7.06, 6.94, 6.79, 6.79, 6.6, 6.51, 6.51, 6.28, 6.28, 6.28, 6.51, 6.51, 6.1, 6.1, 6.1, 6.3, 6.3, 5.88, 5.81, 5.99, 5.57, 5.7, 5.7, 5.7, 6.23, 6.68, 6.68, 6.16, 5.78, 5.78, 6.26, 6.71, 7.15, 7.15, 7.6, 7.6, 8.03, 8.03, 8.03, 8.47, 8.47, 8.03, 7.51, 6.79, 6.8, 6.95, 6.51, 5.06, 3.42, 2.26, 2.09, 1.1, 1.23, 1.14, 1.19, 1.41, -0.0, 1.23, 1.23, -0.0, -1.74, -0.76, -0.0, -0.88, -0.88, -0.88, -0.0, -0.7, -0.0, 5.29, 10.93, 17.61, 16.06, 9.08, 2.68, 1.84, 1.33, 2.49, 1.45, 2.17, 4.28, 6.98, 8.76, 9.26, 5.81, 2.91, 1.88, 1.33, 2.6, 4.46, 6.0, 7.2, 6.28, 3.07, 2.24, 2.24, 2.24, 7.06, 7.06, 6.94, 6.94, 6.79, 6.79, 6.6, 6.51, 6.51, 6.28, 6.51, 6.51, 6.51, 6.51, 6.1, 6.1, 6.3, 6.3, 6.3, 6.3, 6.04, 5.99, 5.7, 5.7, 6.14, 6.16, 6.68, 6.61, 6.6, 6.16, 6.16, 6.23, 6.68, 7.15, 7.15, 7.6, 7.58, 8.03, 8.03, 8.03, 8.42, 8.47, 8.47, 7.51, 7.21, 6.8, 6.95, 6.95, 5.65, 4.08, 2.23, 1.73, 1.07, 1.18, 2.32, 2.4, 1.41, -0.0, -1.1, 1.18, 2.49, 1.08, -0.0, -0.88, -0.0, -0.0, -0.0, -0.0, 0.88, 2.84, 5.09, 9.11, 12.39, 15.75, 17.1, 13.1, 3.53, 0.0, 0.0, 0.0, 0.0, 1.35, 3.64, 5.36, 4.3, 3.07, 1.84, 1.49, 1.49, 1.35, 3.2, 6.65, 7.85, 6.64, 3.82, 2.6, 2.6, 2.6, 7.06, 7.06, 6.94, 6.94, 7.21, 7.21, 7.01, 6.6, 6.51, 6.51, 6.51, 6.51, 6.51, 6.51, 6.51, 6.51, 6.3, 6.3, 6.3, 6.3, 6.47, 6.04, 5.99, 5.7, 6.16, 6.16, 6.61, 6.61, 6.61, 6.16, 6.16, 6.16, 6.6, 6.68, 7.13, 7.58, 8.03, 8.03, 7.97, 7.97, 8.41, 8.41, 7.97, 7.97, 7.21, 6.8, 6.95, 6.95, 5.93, 3.84, 2.26, 1.73, 1.76, 1.8, 2.35, 2.29, 1.14, -0.0, -0.82, -0.0, 2.49, 2.47, -0.0, -0.76, -0.0, -0.0, -0.0, -0.0, 0.79, 3.79, 5.75, 7.42, 9.33, 11.28, 14.08, 18.66, 13.49, 0.8, -2.6, -1.86, -0.0, -0.0, 0.63, 1.2, 0.89, 1.9, 2.07, 2.4, 2.2, 1.41, 2.11, 5.69, 8.93, 8.63, 6.9, 6.13, 5.16, 5.16, 7.07, 7.07, 7.4, 7.4, 7.26, 7.26, 7.01, 7.01, 6.6, 6.51, 6.51, 6.51, 6.6, 6.6, 6.6, 6.51, 6.72, 6.72, 6.72, 6.72, 6.3, 6.47, 6.04, 6.16, 6.16, 6.16, 6.61, 7.06, 7.06, 6.61, 6.6, 6.16, 6.16, 6.61, 7.06, 7.58, 8.03, 7.97, 7.97, 7.97, 7.97, 7.97, 7.87, 7.26, 6.51, 6.51, 6.51, 6.41, 5.35, 3.42, 1.73, 1.2, 1.65, 1.8, 2.29, 2.4, 2.26, -0.0, -0.0, -0.0, 1.6, 2.47, -0.0, -0.0, -0.0, -0.0, -0.0, -0.89, -0.0, 3.6, 5.09, 4.92, 4.41, 6.26, 9.08, 15.77, 20.87, 11.21, 0.0, -1.7, -0.53, -0.0, -0.0, -0.0, -0.0, 0.54, 1.41, 2.2, 3.2, 3.11, 2.3, 4.43, 9.3, 10.15, 9.78, 9.7, 9.34, 9.34, 7.51, 7.51, 7.4, 7.4, 7.26, 7.26, 7.01, 7.01, 7.01, 6.6, 6.6, 6.6, 6.6, 6.6, 6.6, 6.6, 6.6, 6.79, 6.79, 6.79, 6.79, 6.47, 6.47, 6.04, 6.16, 6.6, 6.61, 7.06, 7.06, 7.06, 6.51, 6.04, 6.16, 6.6, 7.06, 7.51, 7.51, 7.97, 7.97, 7.97, 7.97, 7.97, 7.4, 7.21, 6.94, 6.1, 5.81, 4.65, 3.45, 2.26, 1.63, 1.12, 1.23, 1.65, 1.73, 1.71, 1.05, 1.14, -0.0, -0.0, 1.72, 1.72, -0.0, -0.0, -0.0, -0.0, -0.0, 0.45, -0.8, 1.26, 5.31, 7.42, 3.07, 2.11, 5.43, 12.14, 16.97, 18.88, 13.29, 2.24, -1.34, -0.57, 0.57, 1.16, 1.27, 1.47, 1.41, 2.29, 3.9, 4.36, 3.43, 4.11, 6.35, 9.4, 10.35, 10.91, 11.2, 11.2, 7.51, 7.51, 7.4, 7.4, 7.26, 7.26, 7.09, 7.01, 7.01, 7.01, 7.01, 7.01, 7.01, 7.01, 7.01, 6.6, 6.6, 6.79, 6.79, 6.79, 6.79, 6.94, 6.94, 6.47, 6.47, 6.6, 6.61, 7.06, 7.06, 7.06, 6.51, 6.04, 6.16, 6.16, 6.61, 7.07, 7.51, 7.51, 7.97, 7.97, 7.97, 7.51, 7.4, 6.79, 7.01, 7.35, 6.28, 4.11, 3.45, 2.96, 2.29, 1.76, 1.12, 1.2, 1.18, 1.73, 1.18, 1.18, -0.0, 0.78, 0.78, 0.78, -0.0, -0.0, -0.82, -0.0, 0.79, 0.65, 0.0, -0.85, 2.68, 7.35, 9.33, 5.09, 3.85, 7.82, 10.95, 12.96, 17.44, 13.67, 2.4, -0.8, -0.0, 1.58, 2.96, 2.9, 2.9, 3.55, 4.36, 4.36, 3.64, 4.01, 6.7, 8.67, 9.7, 11.2, 11.73, 11.73, 7.51, 7.51, 7.4, 7.4, 7.26, 7.26, 7.26, 7.09, 7.01, 7.01, 7.01, 7.01, 7.01, 7.01, 7.01, 7.01, 6.6, 6.79, 6.79, 7.21, 6.79, 6.79, 6.94, 6.94, 6.47, 6.6, 6.61, 7.06, 7.06, 7.06, 6.6, 6.04, 6.14, 6.16, 6.6, 7.06, 7.51, 7.51, 7.51, 7.97, 7.97, 7.51, 7.4, 6.79, 6.79, 7.47, 7.03, 5.35, 4.1, 3.42, 2.96, 2.44, 1.76, 1.1, 1.2, 1.76, 1.76, 1.1, 0.56, -0.0, -0.0, -0.0, -0.0, -0.88, -1.55, -2.2, -0.82, 3.6, 4.74, 2.24, 0.89, 4.22, 9.84, 10.93, 6.06, 4.6, 5.94, 7.6, 11.52, 16.97, 10.71, 1.49, -0.0, 1.76, 3.42, 3.81, 4.45, 5.0, 4.71, 3.64, 2.4, 3.43, 5.72, 8.4, 9.6, 10.53, 11.57, 11.57, 7.97, 7.97, 7.97, 7.84, 7.84, 7.69, 7.26, 7.09, 7.01, 7.01, 7.01, 7.01, 7.01, 7.01, 7.01, 7.01, 7.21, 7.21, 7.21, 7.26, 7.26, 7.26, 6.94, 6.94, 6.51, 6.6, 6.61, 6.61, 7.42, 6.6, 6.16, 5.99, 5.99, 6.16, 6.6, 7.06, 7.07, 7.51, 7.51, 7.97, 7.52, 7.51, 7.4, 6.79, 7.21, 7.09, 7.31, 6.51, 5.06, 4.1, 3.42, 2.96, 2.29, 1.12, 0.58, 1.14, 1.8, 1.12, 0.56, -0.0, -0.0, -0.0, -0.0, -0.0, -0.85, -2.53, -2.84, -0.0, 5.37, 6.13, 2.98, 2.54, 7.21, 14.19, 9.36, 1.41, 0.7, 3.07, 7.6, 13.25, 13.86, 5.81, 1.7, 2.48, 3.47, 4.1, 4.81, 5.69, 4.43, 2.66, 1.41, 2.3, 4.12, 7.46, 9.86, 10.6, 11.52, 11.52, 7.97, 7.97, 7.97, 7.87, 7.87, 7.84, 7.26, 7.09, 7.01, 7.01, 7.01, 7.01, 7.01, 7.01, 7.01, 7.01, 7.21, 7.26, 7.26, 7.26, 7.26, 7.4, 7.37, 6.94, 6.94, 6.51, 6.61, 6.61, 7.06, 6.98, 6.04, 6.04, 6.04, 6.04, 6.6, 7.06, 7.07, 7.51, 7.51, 7.97, 7.51, 7.51, 6.94, 6.79, 7.01, 7.51, 7.31, 6.41, 5.06, 4.1, 3.42, 3.42, 2.77, 1.8, 0.58, 0.58, 1.14, 1.12, 1.2, 0.56, -0.0, -0.0, -0.0, -0.0, -0.0, -1.8, -1.74, -1.0, 3.16, 6.52, 5.43, 4.38, 5.75, 12.07, 15.01, 3.97, 0.0, 1.24, 5.2, 10.05, 11.62, 8.91, 3.51, 1.9, 2.22, 3.49, 4.37, 5.29, 2.84, 1.33, 0.7, 1.16, 3.49, 5.6, 8.55, 10.75, 11.28, 11.28, 8.03, 8.03, 7.97, 7.97, 7.97, 7.4, 7.26, 7.26, 7.01, 7.01, 7.01, 7.01, 7.01, 7.01, 7.09, 7.09, 7.26, 7.26, 7.26, 7.26, 7.26, 7.4, 7.4, 6.94, 6.94, 6.51, 6.61, 7.06, 7.06, 7.06, 6.94, 6.47, 6.04, 6.04, 6.6, 7.06, 7.07, 7.51, 7.52, 7.52, 7.58, 7.07, 6.94, 6.79, 7.01, 6.8, 7.2, 6.41, 5.06, 4.1, 3.68, 3.68, 3.45, 2.29, 0.58, -0.0, 0.58, 1.12, 1.2, 0.56, -0.0, -0.0, -0.0, -0.0, -0.0, -0.87, -0.0, -0.0, 2.53, 5.36, 6.08, 6.79, 6.71, 9.7, 13.84, 10.02, 1.79, 0.8, 4.73, 8.84, 10.28, 9.36, 5.32, 1.58, -0.0, 1.16, 2.84, 4.0, 1.88, 1.16, 0.61, 0.85, 1.9, 4.24, 6.22, 10.52, 10.98, 10.98, 8.47, 8.47, 8.03, 8.03, 7.51, 7.4, 7.26, 7.21, 7.01, 7.01, 7.01, 7.01, 7.01, 7.01, 7.09, 7.26, 7.26, 7.26, 7.26, 7.26, 7.4, 7.4, 7.4, 6.94, 6.94, 6.94, 6.61, 7.06, 7.06, 7.06, 6.94, 6.47, 6.04, 6.04, 6.6, 7.06, 7.51, 7.51, 7.51, 7.51, 7.58, 7.06, 6.51, 6.72, 6.28, 6.8, 6.8, 6.41, 5.06, 4.1, 3.42, 3.68, 3.45, 3.0, 1.65, 0.57, -0.0, 0.57, 1.12, 0.56, -0.0, -0.0, -0.0, -0.0, -0.0, -0.0, -0.0, -0.0, 1.98, 4.19, 5.72, 7.76, 9.11, 9.83, 10.28, 10.02, 7.21, 3.13, 5.31, 8.36, 9.81, 9.39, 5.78, 1.24, -0.54, -0.0, 1.0, 1.2, 1.88, 1.61, 1.88, 1.61, 1.58, 3.04, 3.58, 5.36, 9.29, 9.29, 8.49, 8.49, 8.05, 7.6, 7.13, 6.94, 6.79, 7.01, 7.01, 7.01, 7.01, 7.01, 7.09, 7.09, 7.26, 7.69, 7.69, 7.69, 7.26, 7.26, 7.4, 7.4, 7.4, 6.94, 6.94, 6.94, 7.06, 7.06, 7.06, 7.06, 6.51, 6.47, 6.04, 6.04, 6.6, 7.06, 7.07, 7.51, 7.51, 7.58, 7.13, 7.13, 6.51, 6.3, 6.51, 6.28, 6.8, 5.86, 5.06, 4.47, 3.84, 3.42, 3.45, 3.45, 2.29, 1.2, 0.57, 0.58, 1.14, 0.56, -0.0, -0.0, -0.0, -0.0, -0.0, -0.0, -0.0, 1.0, 1.74, 2.68, 4.74, 7.07, 10.8, 11.18, 8.05, 4.92, 7.47, 9.83, 10.26, 9.83, 9.83, 8.49, 4.47, 0.57, -1.2, -0.65, -0.0, 1.16, 1.84, 2.23, 2.53, 2.21, 2.23, 2.8, 3.97, 4.87, 6.71, 6.71, 8.49, 8.49, 8.05, 7.6, 7.13, 6.51, 6.79, 6.6, 7.01, 7.01, 7.09, 7.09, 7.09, 7.51, 7.69, 7.69, 7.69, 7.69, 7.69, 7.26, 7.4, 7.4, 7.4, 6.94, 6.94, 6.94, 7.06, 7.06, 7.06, 7.06, 6.51, 6.47, 6.04, 6.04, 6.6, 7.06, 7.07, 7.51, 7.51, 7.58, 7.13, 7.13, 6.47, 6.7, 6.0, 6.51, 6.28, 5.86, 4.75, 4.75, 4.08, 4.1, 3.45, 3.45, 2.29, 1.76, 0.57, 0.62, 0.57, -0.0, -0.0, -0.0, -0.0, -0.0, -0.0, -0.0, -0.0, 0.76, 1.6, 2.68, 3.63, 5.37, 9.3, 12.62, 6.55, 2.23, 3.07, 11.15, 14.67, 12.5, 10.19, 8.82, 3.97, 0.57, -0.65, -0.0, 0.61, 1.33, 2.51, 2.84, 2.79, 3.07, 3.07, 4.24, 4.85, 5.32, 6.26, 5.81, 8.49, 8.49, 8.05, 7.15, 6.61, 6.3, 6.72, 6.6, 7.01, 7.01, 7.09, 7.51, 7.51, 7.51, 7.69, 7.69, 7.69, 7.69, 7.69, 7.84, 7.4, 7.4, 7.4, 6.94, 6.94, 6.94, 7.06, 7.06, 7.06, 7.06, 6.51, 6.47, 6.04, 6.04, 6.6, 6.61, 7.07, 7.51, 7.51, 7.58, 7.13, 7.13, 6.04, 6.7, 6.1, 6.51, 5.75, 5.01, 4.75, 4.47, 4.47, 4.1, 3.45, 3.45, 2.77, 1.76, 1.12, 1.12, 0.57, -0.0, -0.0, -0.0, -0.0, -0.0, -0.0, -0.0, -0.0, 0.81, 1.55, 1.55, 1.7, 3.68, 8.37, 13.35, 12.7, 3.22, 0.79, 7.07, 11.54, 10.28, 7.48, 6.85, 4.73, 1.26, -0.71, -0.0, 0.61, 2.07, 3.49, 4.09, 3.6, 3.82, 3.82, 6.21, 6.66, 7.15, 7.15, 6.26, 8.05, 8.05, 8.05, 7.13, 6.51, 6.3, 6.51, 6.6, 7.01, 7.01, 7.09, 7.51, 7.51, 7.69, 7.69, 7.69, 7.69, 7.74, 7.69, 7.84, 7.4, 7.4, 7.4, 6.94, 6.94, 6.94, 7.06, 7.06, 7.06, 7.06, 6.51, 6.47, 6.04, 6.16, 6.6, 6.61, 7.07, 7.51, 7.58, 7.58, 7.13, 6.68, 6.04, 5.81, 6.94, 6.51, 5.75, 5.01, 4.75, 4.75, 4.47, 4.1, 3.85, 3.45, 3.0, 2.29, 1.76, 0.57, 0.57, -0.0, -0.0, -0.0, -0.0, -0.0, -0.0, -0.0, -0.0, 0.81, 1.7, 1.7, 1.7, 3.22, 7.07, 11.12, 14.85, 6.28, 0.0, 1.54, 4.74, 3.58, 2.91, 4.24, 6.11, 2.17, -0.0, -0.0, 1.4, 2.53, 4.0, 5.86, 4.87, 4.02, 4.47, 7.6, 8.49, 8.46, 8.46, 7.15, 8.49, 8.49, 8.03, 7.51, 6.94, 6.72, 6.51, 7.01, 7.01, 7.09, 7.51, 7.51, 7.51, 7.69, 7.69, 7.74, 7.74, 7.74, 7.87, 7.84, 7.4, 7.4, 7.4, 6.94, 6.94, 6.94, 7.06, 7.06, 7.06, 7.06, 7.06, 6.47, 6.04, 6.16, 6.6, 6.61, 7.07, 7.51, 7.58, 7.58, 7.15, 6.68, 6.16, 5.88, 6.3, 6.94, 5.49, 5.01, 4.75, 4.45, 4.12, 4.1, 3.85, 3.45, 3.0, 2.49, 2.29, 1.12, 0.57, -0.0, -0.0, -0.59, -1.18, -0.0, -0.0, -0.0, -0.0, -0.0, 0.81, 1.47, 1.7, 2.4, 5.59, 8.0, 11.35, 12.11, 2.6, -0.7, -0.59, 0.0, 1.24, 4.09, 7.06, 6.55, 3.04, 1.86, 2.15, 3.32, 5.32, 7.12, 6.71, 5.32, 5.64, 8.36, 9.54, 9.54, 9.54, 9.54, 8.92, 8.92, 8.42, 7.97, 7.4, 6.79, 6.6, 7.01, 7.01, 7.09, 7.51, 7.51, 7.69, 7.69, 7.74, 7.74, 7.74, 7.74, 7.87, 7.84, 7.4, 7.4, 7.4, 7.4, 6.94, 6.94, 7.06, 7.06, 7.06, 7.06, 7.06, 6.47, 6.47, 6.16, 6.6, 6.61, 7.07, 7.58, 7.58, 7.6, 7.15, 6.68, 6.6, 6.04, 6.3, 6.51, 6.28, 5.86, 4.74, 4.45, 4.12, 4.12, 3.85, 3.45, 3.0, 2.8, 1.65, 1.12, 0.61, -0.0, -0.0, -1.16, -1.76, -1.14, -0.0, -0.0, -0.0, -0.0, 0.81, 0.88, 1.7, 2.76, 4.74, 7.07, 9.1, 12.45, 14.11, 6.79, 0.0, -0.89, 0.8, 5.05, 9.68, 10.6, 7.92, 3.07, 2.68, 3.58, 5.36, 8.01, 8.46, 7.76, 7.06, 7.89, 9.6, 9.49, 9.49, 9.49, 8.87, 8.87, 8.87, 8.42, 7.4, 6.79, 6.6, 7.01, 7.01, 7.09, 7.51, 7.69, 7.69, 7.74, 7.74, 7.74, 7.74, 7.87, 7.87, 7.84, 7.4, 7.4, 7.4, 7.4, 6.94, 6.94, 7.06, 7.06, 7.06, 7.06, 7.06, 6.61, 6.6, 6.16, 6.6, 6.61, 7.13, 7.58, 7.58, 7.6, 7.15, 6.68, 6.6, 6.47, 6.3, 6.1, 5.75, 5.29, 4.74, 4.74, 3.84, 3.84, 4.12, 3.45, 3.45, 2.8, 2.29, 1.76, 1.2, 0.56, -0.0, -1.16, -1.71, -2.26, -0.0, -0.0, -0.0, -0.0, 0.81, 0.81, 1.83, 2.53, 4.11, 6.82, 8.55, 10.55, 13.99, 16.39, 11.09, 3.32, 2.12, 5.64, 10.05, 12.01, 10.37, 5.32, 3.07, 3.32, 5.2, 8.19, 8.67, 7.98, 7.2, 8.63, 9.2, 9.2, 9.2, 9.2, 8.87, 8.87, 8.87, 8.42, 7.87, 7.21, 7.01, 7.01, 7.09, 7.09, 7.51, 7.69, 7.74, 7.74, 7.74, 7.74, 7.87, 7.87, 7.87, 7.4, 7.4, 7.4, 7.4, 7.4, 6.97, 6.94, 7.06, 7.06, 7.06, 7.06, 7.06, 6.61, 6.6, 6.16, 6.6, 6.68, 7.13, 7.58, 7.6, 7.15, 7.15, 6.68, 6.6, 6.47, 6.3, 6.1, 5.75, 5.29, 4.74, 4.43, 4.12, 4.12, 3.84, 3.47, 3.22, 2.32, 2.49, 1.76, 1.2, 0.56, -0.0, -1.16, -2.23, -2.29, -1.23, -0.0, -0.0, -0.0, 0.73, 0.81, 2.4, 2.53, 4.11, 6.07, 8.0, 9.08, 11.09, 13.43, 13.51, 10.9, 8.63, 7.28, 8.46, 10.05, 9.46, 7.01, 3.97, 2.79, 5.05, 6.54, 8.79, 5.09, 6.08, 7.06, 7.69, 7.69, 7.69, 7.69, 8.87, 8.87, 8.87, 8.86, 7.87, 7.21, 7.01, 7.01, 7.09, 7.09, 7.69, 7.69, 7.74, 7.74, 7.74, 7.87, 7.87, 7.87, 7.87, 7.87, 7.4, 7.4, 7.4, 7.4, 6.97, 6.94, 7.06, 7.06, 7.06, 7.06, 7.06, 6.61, 6.6, 6.6, 6.61, 7.13, 7.13, 7.58, 7.6, 7.15, 7.15, 6.68, 6.6, 6.47, 6.3, 6.0, 5.75, 5.29, 4.94, 4.43, 4.12, 4.12, 3.47, 3.47, 3.47, 2.32, 2.32, 2.29, 1.76, 0.56, -0.0, -0.58, -1.71, -2.26, -1.14, -0.0, -0.0, -0.0, 0.73, 0.88, 1.66, 2.53, 3.79, 5.82, 7.03, 8.0, 9.6, 11.44, 11.53, 11.25, 11.54, 11.44, 8.36, 6.26, 7.57, 7.12, 5.31, 4.09, 4.81, 7.07, 6.13, 2.84, 4.11, 5.43, 6.44, 6.08, 6.08, 6.08, 9.37, 9.37, 8.92, 8.42, 7.4, 6.79, 7.01, 7.01, 7.26, 7.69, 7.69, 7.74, 7.74, 7.74, 7.87, 7.87, 7.87, 7.87, 7.87, 7.87, 7.4, 7.4, 7.4, 7.4, 6.94, 6.94, 7.06, 7.06, 7.06, 7.06, 7.06, 6.61, 6.6, 6.6, 6.61, 7.13, 7.58, 7.58, 7.6, 7.15, 6.71, 6.68, 6.6, 6.47, 6.3, 6.0, 5.75, 5.21, 4.94, 4.71, 4.43, 4.12, 4.12, 3.47, 3.04, 2.32, 2.32, 2.32, 1.76, 0.56, -0.0, -0.58, -1.71, -2.26, -1.23, -0.0, -0.0, -0.0, -0.0, 0.88, 0.88, 1.83, 3.35, 4.81, 5.43, 6.79, 8.3, 10.28, 10.55, 10.24, 12.52, 14.7, 11.44, 4.43, 3.07, 4.43, 4.43, 4.09, 3.79, 2.86, 2.8, 1.9, 1.88, 2.53, 3.16, 2.84, 2.84, 2.84, 9.37, 9.37, 8.92, 7.97, 7.4, 6.79, 7.01, 7.26, 7.26, 7.69, 7.69, 7.74, 7.74, 7.87, 7.87, 7.87, 7.87, 7.87, 7.87, 7.87, 7.4, 7.4, 7.4, 7.4, 6.94, 7.06, 7.06, 7.06, 7.06, 7.06, 7.06, 6.61, 6.6, 6.6, 6.61, 7.13, 7.58, 7.58, 7.6, 7.15, 6.68, 6.68, 6.6, 6.47, 6.3, 6.0, 5.37, 5.21, 5.21, 4.71, 4.71, 4.12, 4.12, 4.12, 2.82, 2.82, 2.16, 2.32, 1.65, 1.1, -0.0, -0.58, -2.23, -2.75, -2.14, -1.23, -0.0, -0.0, -0.0, 0.98, 1.49, 1.83, 2.4, 4.29, 4.65, 6.01, 7.02, 8.65, 9.62, 9.9, 11.28, 13.76, 14.76, 8.82, 2.12, 1.24, 2.5, 3.07, 3.07, 2.5, 1.86, 1.2, 0.95, 1.24, 1.9, 1.9, 1.9, 1.9, 9.37, 9.37, 8.47, 7.52, 6.94, 6.79, 7.21, 7.26, 7.26, 7.69, 7.74, 7.87, 7.87, 7.87, 7.87, 7.87, 7.87, 7.87, 7.87, 7.84, 7.4, 7.4, 7.4, 7.07, 7.06, 7.06, 7.06, 7.06, 7.06, 7.06, 7.06, 6.61, 6.6, 6.6, 6.68, 7.13, 7.58, 7.6, 7.6, 7.15, 6.68, 6.68, 6.61, 6.47, 6.3, 5.6, 5.6, 5.21, 5.21, 4.94, 4.71, 4.43, 4.12, 4.12, 3.22, 2.82, 2.36, 2.16, 1.8, 1.2, -0.0, -0.55, -1.71, -2.75, -3.0, -1.7, -0.0, -0.0, -0.0, 0.87, 0.85, -0.0, 1.7, 2.47, 4.03, 5.59, 6.64, 6.95, 8.6, 9.9, 10.9, 12.26, 13.8, 15.09, 4.4, -0.71, 0.6, 1.27, 2.68, 2.63, 1.7, 0.0, 0.0, 0.0, 0.57, 1.24, 1.24, 1.24, 9.39, 8.94, 8.47, 7.51, 6.79, 6.79, 7.26, 7.26, 7.69, 7.69, 7.87, 7.87, 7.87, 7.87, 7.87, 7.87, 7.87, 7.87, 7.87, 7.84, 7.4, 7.51, 7.51, 7.07, 7.06, 7.06, 7.06, 7.06, 7.06, 7.06, 7.06, 6.61, 6.6, 6.6, 6.68, 7.13, 7.58, 8.05, 7.6, 7.13, 6.68, 6.61, 6.61, 6.47, 6.3, 5.6, 5.6, 5.47, 5.21, 5.21, 4.71, 4.71, 4.12, 3.76, 3.22, 2.82, 2.36, 2.36, 1.67, 1.12, -0.0, -0.0, -1.73, -2.75, -3.45, -2.6, -0.88, -0.0, 0.76, 0.81, 1.49, 0.65, -0.0, 0.88, 2.35, 3.91, 5.49, 6.24, 7.18, 9.62, 10.55, 10.91, 11.9, 16.34, 11.83, -3.07, -0.89, 0.45, 2.24, 3.07, 2.17, 0.45, 0.0, 0.0, 0.0, 0.57, 0.57, 0.57, 8.94, 8.94, 8.03, 6.97, 6.94, 6.79, 7.26, 7.26, 7.69, 7.87, 7.87, 7.87, 7.87, 7.87, 7.87, 7.87, 7.87, 7.97, 7.97, 7.51, 7.51, 7.51, 7.07, 7.06, 7.06, 7.06, 7.06, 7.06, 7.06, 7.06, 7.06, 6.61, 6.6, 6.6, 6.68, 7.13, 7.6, 8.05, 7.6, 7.13, 6.68, 6.68, 6.61, 6.47, 6.3, 5.81, 5.6, 5.6, 5.47, 5.21, 5.01, 4.71, 4.71, 3.83, 3.49, 2.82, 2.82, 2.36, 1.67, 1.14, -0.0, -0.0, -1.1, -2.26, -3.45, -3.49, -2.4, -0.76, -0.0, 0.82, 1.6, 2.47, 1.41, -0.0, 0.82, 3.2, 4.71, 5.76, 6.95, 8.65, 10.28, 10.91, 11.26, 15.61, 0.6, -3.13, -1.34, 0.0, 0.45, 1.86, 2.21, 1.7, 0.0, -0.8, -0.6, 0.0, 0.0, 0.0, 8.94, 8.94, 8.03, 6.94, 6.94, 7.21, 7.26, 7.4, 7.84, 7.87, 7.87, 7.87, 7.87, 7.87, 7.97, 7.97, 7.97, 7.97, 7.97, 7.51, 7.51, 7.51, 7.07, 7.06, 7.06, 7.06, 7.06, 7.06, 7.06, 7.06, 7.06, 6.61, 6.6, 6.68, 6.68, 7.13, 7.6, 8.05, 7.6, 7.13, 6.68, 6.68, 6.61, 6.47, 6.47, 5.81, 5.6, 5.6, 5.47, 5.21, 5.21, 4.71, 4.37, 3.83, 3.49, 3.49, 2.82, 2.36, 1.84, 1.14, 0.58, -0.0, -0.61, -1.63, -3.21, -4.12, -4.11, -2.53, -0.0, -0.0, 0.82, 1.72, 2.47, 1.7, 0.88, 1.63, 3.91, 5.76, 7.35, 8.03, 9.3, 10.9, 12.39, 10.95, -0.0, -3.13, -1.34, -0.0, -0.0, 0.65, 2.51, 3.07, 0.89, 0.0, -0.57, -0.57, -0.57, -0.57, 8.47, 8.47, 7.51, 6.94, 6.94, 7.4, 7.4, 7.4, 7.87, 7.87, 7.87, 7.87, 7.97, 7.97, 7.97, 7.97, 7.97, 7.97, 7.51, 7.51, 7.51, 7.51, 7.07, 7.06, 7.06, 7.06, 7.06, 6.68, 6.68, 7.06, 6.61, 6.61, 6.6, 6.68, 6.68, 7.13, 7.6, 8.05, 7.58, 7.13, 6.68, 6.68, 6.61, 6.51, 6.47, 5.88, 5.81, 5.6, 5.6, 5.47, 5.21, 5.01, 4.11, 4.11, 3.49, 3.49, 2.84, 2.4, 2.18, 1.7, 0.58, -0.0, -0.57, -1.2, -2.29, -3.47, -3.79, -2.86, -1.49, -0.0, -0.0, 0.81, 1.7, 1.7, -0.0, 0.78, 2.4, 5.64, 7.59, 7.97, 8.3, 10.29, 16.55, 9.2, -1.79, -3.53, -1.2, -0.0, 0.59, 1.27, 3.38, 5.38, 3.07, 0.89, 0.0, 0.0, 0.0, 0.0, 8.47, 8.47, 7.51, 6.94, 6.94, 7.4, 7.4, 7.4, 7.87, 7.87, 7.97, 7.97, 7.97, 7.97, 7.97, 7.97, 7.97, 7.97, 7.51, 7.51, 7.51, 7.51, 7.07, 7.06, 7.06, 7.13, 7.13, 6.68, 6.68, 6.68, 6.61, 6.61, 6.68, 6.68, 6.68, 7.15, 7.6, 7.58, 7.58, 7.13, 6.68, 6.68, 7.06, 6.51, 6.47, 6.3, 5.81, 5.81, 5.6, 5.6, 5.21, 5.21, 4.37, 4.11, 3.78, 3.22, 2.84, 2.84, 2.4, 1.7, 1.16, -0.0, -0.58, -0.57, -1.65, -2.77, -3.47, -3.49, -1.6, -0.79, -0.0, 0.79, 1.66, 0.81, -0.0, -0.81, 0.79, 4.12, 7.18, 7.9, 8.31, 9.62, 16.69, 15.09, 0.63, -3.53, -2.2, -0.0, 1.26, 2.8, 4.71, 6.63, 6.7, 3.32, 0.89, 0.0, 0.0, 0.0, 8.47, 8.47, 7.51, 6.94, 6.94, 7.4, 7.4, 7.84, 7.87, 7.97, 7.97, 7.97, 7.97, 7.97, 7.97, 7.97, 7.97, 7.52, 7.51, 7.51, 7.51, 7.07, 7.07, 7.13, 7.13, 7.13, 6.68, 6.68, 6.68, 6.68, 6.68, 6.68, 6.68, 6.68, 6.68, 7.13, 7.58, 7.58, 7.58, 7.13, 7.13, 6.61, 7.06, 6.94, 6.94, 6.47, 6.3, 5.81, 5.6, 5.6, 5.6, 5.21, 4.65, 4.41, 3.79, 3.49, 3.12, 2.84, 2.4, 1.88, 1.16, 0.59, -0.0, -0.58, -1.23, -1.65, -3.0, -3.47, -2.2, -0.79, -0.0, 0.79, 0.79, 0.88, -0.0, -0.76, -0.65, 2.35, 5.89, 7.27, 7.97, 11.53, 14.7, 19.26, 10.95, -1.6, -3.78, -0.0, 1.93, 3.55, 4.71, 7.33, 9.14, 8.14, 2.63, 0.0, 0.0, 0.0, 8.03, 8.03, 7.51, 7.06, 6.97, 7.4, 7.51, 7.95, 7.97, 7.97, 7.97, 7.97, 7.97, 7.97, 7.97, 7.97, 7.97, 7.51, 7.51, 7.51, 7.58, 7.13, 7.13, 7.13, 7.13, 7.13, 6.68, 6.68, 6.68, 6.68, 6.68, 6.68, 6.68, 6.68, 6.68, 7.13, 7.58, 7.6, 7.58, 7.13, 7.13, 6.61, 6.94, 6.94, 6.94, 6.51, 6.3, 6.3, 6.3, 5.6, 5.6, 4.84, 4.65, 4.65, 4.07, 3.49, 3.49, 3.12, 2.2, 2.2, 1.73, 0.54, -0.0, -0.59, -0.58, -1.23, -3.0, -3.22, -2.84, -1.66, -0.0, -0.0, -0.0, -0.0, -0.0, -0.0, -0.88, -0.0, 4.29, 6.01, 8.68, 10.87, 13.35, 17.79, 17.9, 2.4, -4.12, -1.26, 2.9, 4.67, 5.72, 6.98, 10.26, 11.09, 5.64, 0.95, 0.95, 0.95, 8.03, 8.03, 7.51, 7.07, 7.51, 7.51, 7.51, 7.97, 7.97, 7.97, 7.97, 7.97, 7.97, 8.03, 8.03, 8.03, 7.58, 7.58, 7.58, 7.58, 7.13, 7.13, 7.13, 7.13, 7.13, 6.68, 6.68, 6.68, 6.68, 6.68, 6.68, 6.68, 6.68, 6.68, 6.68, 7.13, 7.6, 7.6, 7.6, 7.13, 6.61, 6.61, 7.06, 6.94, 6.94, 6.94, 6.3, 6.3, 6.3, 6.3, 5.6, 5.47, 4.84, 4.65, 4.07, 4.07, 3.49, 3.12, 2.86, 2.44, 1.73, 1.19, -0.0, -0.0, -0.59, -1.16, -2.16, -3.04, -2.84, -1.83, -0.88, -0.0, -0.0, -0.88, -0.0, -0.0, -0.0, -0.0, 1.66, 6.11, 7.69, 10.23, 12.56, 16.33, 20.01, 11.45, -0.65, -1.41, 2.2, 6.01, 6.96, 7.85, 10.38, 11.95, 9.11, 2.6, 2.6, 2.6, 8.03, 8.03, 7.51, 7.51, 7.51, 7.51, 7.51, 7.52, 7.97, 8.03, 8.03, 8.03, 8.03, 8.03, 8.03, 7.58, 7.58, 7.58, 7.58, 7.58, 7.13, 7.13, 7.13, 7.13, 7.13, 6.68, 6.68, 6.68, 6.68, 6.68, 6.68, 6.68, 6.68, 6.68, 6.68, 7.13, 7.6, 7.6, 7.6, 7.13, 6.61, 6.61, 7.06, 7.06, 6.94, 6.94, 6.94, 6.3, 6.3, 6.3, 6.1, 5.6, 5.08, 4.93, 4.29, 4.07, 4.07, 3.48, 2.86, 2.86, 2.44, 1.76, 1.08, -0.0, -0.55, -0.61, -1.16, -2.4, -2.84, -2.22, -1.27, -0.79, -0.87, -0.87, -0.87, -0.0, -0.0, -0.0, 0.87, 4.81, 7.07, 9.6, 12.56, 15.84, 19.31, 15.61, 3.14, -0.0, 2.66, 6.98, 8.49, 8.76, 9.93, 11.84, 10.62, 5.36, 5.36, 5.36, 8.03, 8.03, 7.51, 7.51, 7.51, 7.51, 7.58, 7.58, 8.03, 8.03, 8.03, 8.03, 7.58, 7.58, 7.58, 7.58, 7.58, 7.58, 7.58, 7.13, 7.13, 7.13, 7.13, 7.13, 7.13, 6.68, 6.68, 6.68, 6.68, 6.68, 6.68, 6.68, 6.23, 6.68, 6.68, 7.15, 7.6, 7.6, 7.13, 7.13, 6.61, 6.61, 7.06, 7.06, 7.06, 6.94, 6.94, 6.79, 6.3, 6.3, 6.1, 5.6, 5.47, 5.08, 4.93, 4.29, 4.07, 4.07, 3.48, 3.15, 2.86, 2.22, 1.76, 0.57, -0.0, -0.57, -0.63, -1.76, -2.44, -2.22, -1.8, -0.98, -0.87, -1.27, -0.76, -0.87, -0.0, -0.0, -0.0, 2.68, 6.44, 9.49, 12.04, 15.35, 18.16, 16.85, 8.3, 2.79, 4.07, 7.59, 9.14, 9.86, 10.37, 11.42, 11.09, 8.05, 8.05, 8.05, 7.58, 7.58, 7.58, 7.58, 7.58, 7.58, 7.58, 7.58, 7.58, 8.03, 8.03, 7.58, 7.6, 7.6, 7.58, 7.58, 7.58, 7.58, 7.13, 7.13, 7.13, 7.13, 7.13, 7.13, 7.13, 6.68, 6.68, 6.68, 6.68, 6.68, 6.68, 6.68, 6.23, 6.68, 6.68, 7.15, 7.6, 7.58, 7.13, 7.13, 7.13, 7.13, 7.06, 7.06, 7.06, 6.94, 6.94, 6.94, 6.79, 6.72, 6.1, 6.0, 5.6, 5.47, 5.08, 4.93, 4.55, 4.07, 3.73, 3.48, 3.16, 2.86, 2.23, 1.8, 0.59, -0.0, -0.0, -0.66, -1.8, -1.8, -1.8, -1.13, -1.13, -1.27, -0.87, -0.76, -0.0, -0.0, -0.0, 2.0, 4.84, 8.55, 10.95, 13.49, 16.71, 16.63, 11.9, 7.02, 6.01, 8.32, 10.28, 10.8, 10.88, 11.75, 11.09, 8.05, 8.05, 8.05, 7.58, 7.58, 7.58, 7.58, 7.58, 7.58, 7.58, 7.58, 7.58, 8.03, 8.03, 7.58, 7.6, 7.6, 7.58, 7.58, 7.58, 7.58, 7.13, 7.13, 7.13, 7.13, 7.13, 7.13, 7.13, 6.68, 6.68, 6.68, 6.68, 6.68, 6.68, 6.68, 6.23, 6.68, 6.68, 7.15, 7.6, 7.58, 7.13, 7.13, 7.13, 7.13, 7.06, 7.06, 7.06, 6.94, 6.94, 6.94, 6.79, 6.72, 6.1, 6.0, 5.6, 5.47, 5.08, 4.93, 4.55, 4.07, 3.73, 3.48, 3.16, 2.86, 2.23, 1.8, 0.59, -0.0, -0.0, -0.66, -1.8, -1.8, -1.8, -1.13, -1.13, -1.27, -0.87, -0.76, -0.0, -0.0, -0.0, 2.0, 4.84, 7.35, 9.49, 11.62, 13.89, 14.46, 12.52, 9.23, 7.59, 8.65, 10.29, 11.5, 11.99, 12.56, 11.23, 6.22, 6.22, 6.22]}, {"header": {"dx": 0.06612293990616946, "dy": 0.0552356325346848, "nx": 98, "ny": 59, "la1": 35.046912555036876, "la2": 31.78801023549047, "lo1": -121.43107172385933, "lo2": -114.95102361305473, "refTime": "2026041109", "parameterCategory": 1, "parameterNumber": 3}, "data": [4.1, 4.47, 4.75, 5.08, 5.06, 5.29, 5.21, 5.4, 5.57, 5.7, 6.23, 5.33, 4.92, 4.02, 4.02, 3.47, 3.47, 3.47, 4.92, 5.36, 5.2, 4.8, 3.45, 3.2, 2.54, 3.04, 2.6, 2.24, 2.68, 2.23, 1.24, 0.57, -0.0, -0.0, 0.0, 0.0, -0.99, -0.79, -0.79, 0.0, 0.0, 0.7, 0.0, 0.0, 0.0, 0.0, 0.0, 0.0, 0.0, 1.4, 3.84, 4.22, 4.09, 3.84, 3.84, 3.49, 3.16, 3.16, 2.41, 1.6, 1.49, 1.55, 2.35, 2.35, 2.8, 3.2, 2.26, 2.26, 1.55, 1.58, 1.58, 1.55, 0.76, 0.0, -0.71, -1.49, -1.4, -1.88, -2.24, -2.8, -3.07, -3.74, -4.66, -5.16, -6.07, -6.26, -5.81, -4.87, -4.4, -5.43, -5.94, -6.88, -6.79, -6.45, -6.2, -5.41, -4.0, -1.13, 4.1, 4.1, 4.47, 4.75, 5.37, 5.35, 5.21, 5.47, 5.4, 5.7, 6.16, 6.21, 4.92, 4.02, 4.92, 5.2, 3.95, 3.82, 3.58, 4.47, 5.36, 5.7, 4.98, 4.8, 3.47, 2.54, 1.7, 1.79, 2.68, 3.13, 2.6, 1.26, 0.6, -0.0, -0.0, -0.45, -0.8, -0.71, -0.54, 0.0, 0.0, 0.0, 0.0, -0.79, -0.76, -1.35, -0.7, 0.0, 1.2, 3.22, 3.84, 3.84, 3.84, 3.48, 2.53, 2.84, 2.84, 2.41, 2.15, 1.6, 1.33, 2.2, 2.4, 3.47, 3.11, 3.09, 3.15, 2.18, 1.45, 0.74, 1.55, 1.45, 1.6, 0.73, 0.0, -0.71, -1.4, -1.88, -2.24, -2.8, -3.07, -3.74, -4.66, -5.16, -6.07, -6.26, -5.81, -4.87, -4.4, -5.43, -5.94, -6.88, -6.79, -6.45, -6.2, -5.41, -4.0, -1.13, 4.1, 4.1, 4.47, 4.47, 5.37, 5.35, 5.29, 5.47, 5.31, 5.57, 6.14, 5.78, 4.92, 4.47, 3.95, 3.95, 4.15, 3.74, 2.12, 4.47, 4.02, 4.02, 4.77, 5.81, 5.37, 3.22, 2.12, 1.79, 2.6, 3.58, 3.58, 2.68, 2.12, 0.63, 0.0, 0.0, 0.0, 0.0, -0.54, -0.54, 0.0, -1.41, -1.55, -1.66, -2.2, -2.11, -0.66, 0.76, 2.21, 2.86, 3.22, 3.16, 3.16, 2.41, 1.9, 1.9, 1.88, 2.15, 1.6, 1.6, 1.4, 2.21, 3.48, 3.72, 4.16, 5.13, 5.52, 5.18, 2.99, 0.76, 0.0, 0.0, 0.72, 0.76, 0.0, -0.7, -1.16, -1.58, -2.4, -3.16, -3.49, -3.45, -4.24, -4.93, -5.2, -6.22, -6.26, -4.92, -5.34, -7.06, -7.59, -7.52, -7.82, -7.82, -6.31, -3.91, -0.7, 0.53, 3.68, 4.1, 4.1, 4.47, 5.06, 5.06, 5.01, 5.21, 5.08, 5.51, 5.7, 5.78, 5.29, 4.02, 4.02, 3.95, 3.74, 3.6, 2.54, 3.13, 3.58, 3.13, 3.13, 3.2, 3.83, 4.29, 2.4, 2.24, 2.6, 3.07, 3.58, 3.58, 3.32, 2.6, 1.49, 1.58, 1.24, 0.71, -0.65, -1.2, -1.6, -2.3, -2.3, -2.4, -1.47, -0.81, 0.0, 2.15, 2.86, 2.21, 2.21, 2.15, 2.15, 1.4, 1.49, 2.21, 1.49, 1.4, 1.4, 1.2, 1.9, 2.8, 3.83, 3.48, 5.37, 7.64, 8.46, 8.38, 7.73, 3.6, 0.0, -0.65, -0.65, 0.0, 0.0, -0.79, -1.16, -1.26, -2.5, -4.43, -4.12, -3.83, -3.74, -4.4, -4.93, -4.73, -4.47, -5.36, -6.94, -8.68, -8.6, -7.59, -7.59, -6.24, -2.3, 0.0, 1.16, 1.33, 3.21, 3.68, 4.1, 4.1, 4.75, 5.06, 5.35, 4.94, 5.08, 5.31, 5.57, 5.26, 4.85, 4.02, 4.02, 3.04, 3.74, 3.6, 3.6, 2.6, 4.02, 4.02, 2.68, 2.12, 2.6, 4.34, 4.98, 3.04, 2.68, 3.07, 2.17, 2.24, 2.17, 4.84, 4.74, 3.79, 2.84, 2.0, 0.0, -1.16, -1.6, -1.33, -0.61, 0.0, 0.0, 1.55, 2.53, 2.68, 2.84, 2.84, 2.15, 2.41, 1.4, 1.49, 1.49, 2.41, 1.4, 0.76, 0.76, 1.49, 1.86, 2.4, 3.22, 5.05, 7.67, 9.3, 9.62, 10.51, 11.38, 10.34, 6.14, 1.16, 0.0, 0.53, 0.7, 0.0, -1.58, -1.79, -2.15, -4.07, -4.74, -4.09, -3.83, -3.84, -5.09, -5.75, -5.81, -6.98, -8.55, -9.3, -7.64, -6.32, -6.01, -1.88, 1.49, 2.15, 1.33, 1.49, 2.77, 3.45, 3.45, 4.1, 4.75, 4.75, 5.35, 5.29, 5.21, 5.08, 5.51, 5.24, 4.85, 3.58, 3.58, 2.17, 2.6, 3.6, 2.53, 1.86, 2.6, 3.58, 4.47, 5.26, 4.34, 4.82, 7.21, 7.21, 4.38, 2.68, 1.79, 0.89, 0.89, 2.6, 3.79, 3.9, 4.16, 2.29, 0.0, 0.0, 0.0, 0.0, 1.4, 1.83, 2.6, 3.11, 2.4, 1.8, 1.74, 2.53, 1.4, 1.2, 0.85, 1.49, 1.8, 1.83, 0.76, 0.76, 0.65, 1.24, 2.12, 3.04, 5.16, 7.28, 8.4, 8.67, 8.94, 10.28, 11.82, 13.35, 11.92, 7.82, 5.43, 4.65, 5.38, 3.11, -0.89, -1.88, -1.88, -2.79, -4.74, -5.09, -4.46, -4.46, -6.07, -7.71, -8.05, -9.11, -9.2, -8.24, -7.07, -6.68, -2.53, 1.79, 3.13, 1.61, 0.59, 0.66, 2.77, 3.0, 3.45, 3.85, 4.12, 4.75, 5.06, 5.01, 5.21, 5.08, 5.31, 5.09, 4.57, 3.47, 3.58, 1.7, 2.54, 2.6, 1.74, 0.8, -0.0, 0.6, 1.26, 3.58, 5.36, 5.7, 6.14, 5.81, 5.4, 4.22, 2.12, 1.7, 1.27, 1.26, 3.16, 4.01, 3.79, 3.35, 0.87, 0.95, 0.89, 1.34, 3.35, 3.79, 4.74, 3.33, 1.7, 0.87, 1.0, 2.84, 2.48, 1.24, 0.71, 0.71, 0.85, 0.0, 0.0, 0.0, 0.0, 1.6, 2.17, 5.31, 6.98, 7.71, 6.54, 7.03, 7.69, 8.32, 9.56, 11.29, 10.7, 9.22, 7.22, 5.49, 4.6, 3.78, 0.63, -1.33, -1.84, -2.53, -4.46, -6.08, -6.7, -6.7, -7.89, -8.84, -9.39, -9.26, -8.82, -8.0, -7.85, -5.69, 0.0, 3.13, 2.6, 1.16, 0.59, 1.33, 2.77, 3.0, 3.45, 3.45, 4.12, 4.45, 4.45, 5.01, 4.94, 4.93, 4.9, 5.09, 4.57, 4.38, 4.47, 2.68, 1.79, 2.54, 1.58, -0.0, -0.0, -0.0, -0.0, 0.57, 0.95, 2.24, 2.24, 2.4, 2.4, 3.35, 4.8, 4.8, 4.8, 3.79, 3.07, 2.4, 1.52, 1.65, 2.12, 1.49, 1.34, 1.34, 2.24, 2.53, 2.2, 1.1, 0.82, 2.41, 2.98, 2.84, 1.24, 0.71, 0.85, 0.87, 0.54, 0.0, 0.0, 0.0, 0.0, 1.34, 3.13, 6.26, 6.66, 6.7, 4.84, 4.46, 5.09, 5.3, 6.14, 6.1, 7.11, 6.31, 3.88, 1.45, 0.76, 0.65, 0.65, -0.0, -1.84, -2.53, -3.07, -6.32, -7.85, -8.25, -8.71, -8.91, -8.94, -8.82, -7.71, -5.86, -3.82, -1.2, 1.79, 2.63, 1.9, 0.61, 0.59, 1.33, 2.29, 3.0, 3.0, 3.45, 4.12, 4.12, 4.45, 4.74, 4.71, 4.65, 4.55, 4.6, 5.2, 4.66, 4.38, 3.9, 3.58, 3.58, 2.68, 1.6, 0.45, 0.0, 0.63, 0.6, -0.0, 0.0, 0.0, 0.0, 0.89, 3.35, 3.35, 2.0, 2.84, 2.48, 1.66, 0.76, 0.0, 0.0, 1.05, 0.76, 1.58, 1.6, 1.26, 0.0, -1.19, -0.82, 2.4, 5.81, 5.75, 3.22, 3.48, 0.0, 0.0, 0.0, 0.0, 0.0, 0.0, 0.0, 0.0, 1.34, 4.92, 6.71, 5.59, 4.19, 2.41, 2.41, 2.3, 2.9, 3.06, 3.19, 3.14, 3.6, 1.54, 0.0, -0.69, -0.72, 0.0, -0.0, -1.88, -2.21, -2.15, -4.66, -6.8, -7.56, -8.38, -8.05, -6.71, -4.47, -3.13, -1.79, 0.0, 1.79, 2.24, 2.12, 1.2, 0.59, 0.59, 1.13, 2.29, 2.49, 2.8, 3.22, 3.72, 4.12, 4.12, 4.43, 4.43, 4.37, 4.55, 4.27, 3.7, 4.11, 4.15, 3.95, 3.9, 4.02, 3.58, 2.68, 1.79, 1.34, 1.34, 0.0, 0.0, 0.0, 0.0, -0.0, 0.0, 1.26, 0.57, 0.0, 0.0, 0.0, 0.0, 1.14, 0.0, 0.0, 0.76, 1.8, 1.88, 1.24, 0.0, -0.79, -2.29, -0.81, 4.15, 6.21, 6.28, 4.46, 3.84, 3.16, 0.85, -0.8, -1.58, -1.24, -0.8, -0.63, 0.45, 3.13, 6.71, 6.21, 6.4, 3.48, 2.84, 0.0, -0.7, -0.71, 0.0, 0.0, 0.0, 0.71, 0.69, 0.0, 0.0, 0.0, -0.89, -1.9, -2.23, -2.53, -2.15, -2.6, -4.24, -5.2, -4.43, -2.68, -1.34, -0.63, 0.0, 0.89, 1.79, 2.12, 1.7, 1.26, 1.2, 0.59, 0.59, 0.59, 2.29, 2.32, 2.8, 2.8, 3.47, 3.84, 3.84, 4.12, 4.43, 4.71, 4.07, 4.0, 3.72, 3.6, 3.6, 3.9, 3.9, 3.09, 2.68, 1.79, 0.89, 0.0, 0.0, 0.0, 0.0, 0.0, 0.0, 0.0, 0.0, 0.0, 0.0, -0.57, -0.63, -1.34, -1.26, 0.0, 0.0, 0.0, 1.4, 2.3, 1.49, 0.76, 0.0, -1.23, -1.23, 2.41, 5.31, 4.85, 3.74, 4.4, 7.42, 7.89, 7.21, 2.4, 0.0, -0.45, -2.68, -3.47, 0.95, 6.26, 8.9, 7.71, 5.34, 4.22, 4.11, 1.49, -0.7, -3.79, -5.49, -4.71, -3.61, -2.17, -0.67, 0.0, 0.0, 0.0, -0.95, -2.21, -1.84, -1.84, -1.88, -2.17, -1.79, -2.68, -1.2, 0.42, 1.2, 1.88, 1.49, 0.99, 1.26, 0.6, 0.95, 0.8, 0.53, 0.0, 0.0, 0.0, 1.65, 2.14, 2.8, 2.8, 3.47, 3.47, 3.84, 4.12, 4.12, 4.12, 4.11, 4.07, 3.43, 3.14, 3.07, 2.91, 2.91, 2.91, 2.6, 1.79, 0.0, 0.0, -0.63, 0.0, 0.0, 0.0, 0.0, 0.0, 0.0, -0.71, 0.0, 0.0, 0.0, -0.6, -1.9, -1.16, 0.0, 0.7, 1.4, 2.2, 2.2, 1.55, 0.76, 0.0, 2.32, 6.07, 8.05, 8.05, 7.06, 7.74, 10.02, 11.84, 13.32, 13.76, 10.16, 8.33, 4.85, -0.0, 0.85, 7.11, 10.16, 9.06, 5.75, 6.02, 7.35, 8.67, 8.65, 2.88, -1.4, -3.07, -2.11, -2.11, -2.11, 0.0, 0.57, -0.0, -1.49, -1.88, -0.65, -0.0, -0.54, -0.95, 0.0, 0.0, 1.9, 2.53, 2.73, 1.8, 2.07, 1.61, 0.71, 0.0, 0.0, 0.0, 0.0, 0.0, 0.0, 0.0, 1.65, 2.14, 2.32, 2.8, 3.47, 3.47, 3.84, 4.12, 4.12, 4.12, 4.11, 3.79, 3.48, 3.16, 2.84, 2.79, 2.5, 2.5, 2.15, 1.7, 0.45, 0.0, -0.63, -0.6, 0.0, 0.0, 0.0, 0.0, 0.0, 0.0, 0.0, 0.0, 0.0, 0.0, -0.76, 0.0, 0.0, 1.6, 1.6, 2.47, 3.33, 3.2, 2.47, 3.22, 6.8, 8.87, 8.94, 8.49, 7.97, 8.41, 9.36, 10.73, 12.07, 12.96, 13.81, 14.37, 13.02, 8.37, 4.38, 7.89, 10.73, 9.11, 6.98, 8.01, 11.52, 14.21, 16.89, 16.29, 10.68, 8.24, 8.06, 4.46, 0.0, -0.0, 1.26, -0.0, -1.2, -0.71, -0.0, 0.63, 0.63, 0.0, 0.0, 1.79, 3.32, 3.49, 2.98, 2.98, 3.43, 3.64, 1.94, 0.0, -0.45, -0.63, -0.65, 0.0, 0.0, 0.0, 1.65, 2.14, 2.32, 2.8, 3.22, 3.47, 3.84, 3.84, 4.12, 4.12, 3.83, 4.11, 3.49, 3.48, 2.86, 2.84, 2.53, 2.5, 2.21, 1.9, 1.26, 0.0, -0.63, -0.8, -0.65, -0.59, 0.0, 0.0, 0.0, 0.0, 0.0, 0.0, 0.0, 0.0, 0.0, 0.0, 0.7, 2.4, 2.4, 2.6, 2.47, 3.11, 3.45, 5.59, 7.4, 8.67, 7.42, 6.71, 7.15, 7.6, 8.49, 8.49, 8.41, 8.05, 8.49, 8.36, 9.6, 12.45, 11.2, 9.39, 10.25, 10.22, 9.83, 11.18, 12.96, 13.77, 14.93, 16.87, 17.77, 14.64, 15.09, 14.13, 5.6, -0.0, -0.0, -0.0, -0.54, -0.0, 0.89, 1.26, 1.58, 0.57, 0.6, 1.34, 3.13, 3.07, 4.43, 4.36, 5.06, 4.87, 4.0, 0.59, -0.95, -0.89, -0.6, 0.0, 0.0, 0.0, 1.65, 1.65, 2.32, 2.8, 3.22, 3.47, 3.84, 3.84, 3.84, 4.12, 4.12, 3.83, 3.78, 3.49, 2.86, 2.86, 2.84, 2.21, 1.88, 1.88, 1.16, 0.65, 0.0, 0.0, -0.54, -0.61, -0.57, -0.54, 0.0, 0.0, 0.0, -0.57, 0.0, 0.0, 0.0, 0.0, 1.23, 1.7, 2.49, 2.29, 1.72, 2.26, 2.49, 3.76, 5.37, 6.79, 7.74, 7.52, 7.15, 6.71, 7.15, 7.15, 6.26, 5.36, 5.36, 5.7, 6.13, 9.27, 11.2, 10.66, 9.39, 9.39, 10.22, 11.12, 11.62, 12.02, 12.47, 12.08, 11.2, 10.99, 10.28, 11.52, 11.29, 1.84, -1.9, -1.49, -0.0, 0.45, 1.26, 1.49, 2.07, 1.66, 0.7, 1.86, 2.68, 3.13, 4.8, 6.08, 6.01, 6.14, 5.51, 2.75, 0.0, 0.0, 0.0, 0.63, 0.63, 0.63, 1.65, 1.65, 2.32, 2.8, 3.22, 3.45, 3.72, 3.84, 3.84, 3.84, 4.12, 3.49, 3.49, 3.49, 3.49, 2.86, 2.86, 2.23, 1.88, 1.88, 1.84, 1.13, 0.59, 0.0, 0.0, 0.0, -0.57, -0.61, 0.0, 0.0, 0.0, -0.59, -0.56, 0.0, 0.0, 0.0, 0.82, 1.6, 1.32, 1.1, 1.72, 1.6, 2.32, 3.49, 4.65, 5.81, 7.21, 7.97, 7.6, 7.06, 7.06, 6.26, 5.81, 4.92, 4.47, 4.92, 5.7, 7.21, 8.63, 8.17, 7.15, 7.52, 8.22, 8.37, 7.97, 8.49, 8.49, 9.54, 9.48, 10.23, 7.68, 6.14, 7.01, 7.11, 0.69, 0.0, 0.54, 0.65, 0.65, 0.7, 1.52, 1.45, 1.63, 1.49, 2.6, 3.51, 4.02, 5.05, 6.06, 5.38, 4.75, 1.45, 0.65, 1.2, 0.65, 1.26, 1.2, 1.2, 1.65, 1.65, 2.32, 2.8, 3.0, 3.45, 3.72, 3.72, 3.47, 3.47, 3.47, 3.76, 3.49, 3.49, 3.49, 2.84, 2.86, 2.23, 2.23, 1.61, 1.13, 1.11, 1.11, 0.59, 0.0, 0.0, -0.57, -0.61, -0.59, -0.57, -0.61, -0.59, -0.56, 0.0, 0.0, 0.0, 0.82, 1.14, 1.05, 1.23, 1.23, 1.7, 2.32, 1.88, 4.65, 5.75, 7.21, 7.21, 7.06, 6.26, 5.2, 4.92, 4.92, 4.92, 4.92, 5.36, 4.77, 4.09, 3.79, 5.01, 6.14, 6.26, 6.13, 6.13, 5.75, 5.59, 6.61, 7.6, 9.6, 10.36, 7.43, 3.61, 3.07, 4.76, 6.09, 6.21, 6.33, 5.4, 3.25, 1.55, 0.74, 0.0, 0.0, 0.61, 1.7, 2.6, 3.58, 3.49, 3.91, 3.07, 2.87, 2.06, 0.59, 0.61, 1.16, 1.58, 1.7, 1.7, 1.12, 1.65, 2.14, 3.0, 3.0, 3.45, 3.45, 3.45, 3.72, 3.47, 3.47, 3.47, 3.49, 3.49, 3.49, 2.84, 2.86, 2.48, 2.23, 1.84, 1.13, 0.59, 0.66, 0.57, 0.0, 0.0, -0.59, -0.57, -0.61, -1.16, -0.58, -0.57, -0.56, -0.56, 0.0, 0.0, 0.0, 0.0, 0.0, 1.3, 0.0, 0.85, 0.85, 2.48, 3.76, 5.59, 6.13, 6.13, 6.23, 6.14, 5.36, 4.47, 4.02, 4.47, 4.47, 4.02, 3.82, 3.72, 4.09, 4.09, 5.2, 6.26, 6.23, 5.75, 5.37, 4.8, 4.6, 4.34, 5.2, 4.6, 4.38, 2.99, 2.37, 3.04, 4.65, 7.12, 8.36, 9.43, 7.88, 5.45, 2.31, 0.0, 0.0, 0.63, 0.6, 0.0, 0.0, 1.6, 1.41, 1.47, 2.28, 2.39, 0.59, 0.0, 1.2, 1.9, 1.86, 1.86, 1.12, 1.65, 2.29, 3.0, 3.0, 3.45, 3.45, 3.45, 3.45, 3.72, 3.47, 3.47, 3.22, 3.22, 3.08, 3.22, 2.61, 2.86, 2.22, 1.8, 0.59, 0.0, 0.61, 0.79, 0.0, 0.0, 0.0, -0.87, -0.88, -0.55, -0.59, -0.58, -0.57, 0.0, 0.0, 0.0, 0.0, 0.0, 0.0, 0.0, 0.0, 0.0, 0.0, 1.23, 3.45, 4.47, 5.93, 5.59, 6.23, 6.14, 6.14, 5.81, 5.36, 4.92, 4.92, 4.24, 4.24, 4.4, 4.46, 4.09, 4.92, 6.14, 6.36, 4.15, 5.2, 4.84, 4.22, 2.0, 0.0, 0.0, 0.0, 1.52, 2.33, 3.1, 3.11, 2.35, 2.39, 3.91, 6.52, 7.95, 3.02, 0.0, -0.57, -0.0, -0.0, -1.26, -1.79, -1.58, 0.0, 0.0, 0.77, 2.25, 0.0, 0.6, 2.12, 2.5, 1.88, 1.88, 1.12, 1.76, 2.29, 2.29, 3.0, 3.45, 3.45, 3.45, 3.45, 3.45, 3.45, 3.47, 3.47, 2.82, 2.82, 2.82, 3.08, 2.84, 2.4, 1.83, 0.98, 0.65, 0.53, 0.0, 0.73, 0.88, 0.0, 0.0, 0.0, 0.0, -0.54, 0.0, 0.0, 0.0, 0.0, 0.0, 0.0, -0.54, -0.56, -0.56, 0.0, 0.0, 0.54, 0.58, 2.26, 4.46, 5.37, 5.59, 5.81, 5.7, 5.81, 5.81, 5.81, 5.36, 3.95, 3.95, 4.77, 3.2, 2.53, 3.72, 4.92, 5.81, 5.81, 6.23, 5.2, 4.22, 3.2, 1.79, 0.0, -1.52, -0.81, -0.79, -0.76, 0.0, 0.0, -0.76, -2.35, -2.39, 2.25, 4.7, 4.66, 0.0, -1.33, -0.59, -0.0, -0.57, -0.95, -1.34, -1.16, -1.13, -0.67, 0.0, 0.0, 1.2, 1.79, 2.5, 2.15, 2.15, 1.2, 1.76, 2.29, 2.29, 2.77, 3.0, 3.45, 3.45, 3.45, 3.45, 3.45, 3.22, 3.47, 3.04, 2.82, 2.82, 2.82, 2.18, 2.4, 2.6, 1.55, 1.13, 0.59, 0.63, 0.54, 0.59, 0.54, 0.0, 0.0, 0.0, 0.0, 0.0, 0.0, 0.0, 0.0, 0.0, 0.0, -0.57, -0.56, -0.56, 0.0, 0.0, 0.56, 0.57, 2.37, 4.44, 5.69, 5.59, 5.4, 5.81, 5.81, 5.36, 5.36, 5.36, 5.26, 4.15, 3.83, 2.53, 2.53, 3.82, 5.36, 5.81, 5.01, 4.65, 3.83, 3.22, 2.97, 3.13, 2.68, 1.72, 1.52, 0.76, -1.5, -4.61, -4.61, -4.65, -6.87, -5.95, -3.76, 0.0, 3.9, 3.02, 0.0, -0.61, -0.0, -0.0, -0.0, -0.45, -1.24, -1.84, -2.2, -1.58, 0.0, 1.26, 1.79, 1.9, 1.33, 1.33, 1.2, 1.76, 2.29, 2.29, 2.77, 2.77, 3.21, 3.45, 3.45, 3.45, 3.45, 3.45, 2.8, 2.8, 2.8, 3.04, 2.36, 2.36, 2.36, 1.7, 1.7, 1.73, 1.19, 0.59, 0.58, 0.0, 0.0, 0.0, 0.0, 0.0, 0.0, -0.57, -0.56, 0.0, 0.0, 0.0, 0.0, 0.0, 0.0, 0.0, 0.0, 0.56, 0.57, 0.57, 2.23, 4.05, 5.44, 4.43, 5.7, 5.81, 5.81, 5.36, 5.36, 5.36, 5.7, 5.7, 4.8, 3.58, 2.4, 3.58, 4.38, 3.74, 4.22, 3.58, 3.22, 2.98, 2.6, 1.79, 5.29, 7.21, 8.0, 9.87, 6.2, -2.12, -4.43, -4.71, -6.35, -7.27, -6.95, -4.73, 0.0, 3.53, 3.07, 0.61, 0.0, 0.89, 0.0, -0.6, -1.61, -2.07, -1.94, -0.67, 0.0, 1.2, 1.26, 1.2, 0.7, 0.7, 1.1, 1.1, 1.63, 2.44, 2.96, 2.96, 3.42, 3.21, 3.45, 3.45, 3.45, 3.45, 3.0, 2.8, 2.8, 2.8, 2.32, 2.32, 2.16, 1.84, 1.7, 1.7, 1.16, 0.59, 0.58, 0.57, 0.0, 0.0, 0.0, 0.0, 0.0, 0.0, -0.56, -0.59, 0.0, 0.0, 0.0, 0.0, 0.0, 0.0, 0.56, 0.56, 0.57, 1.16, 2.4, 4.05, 4.46, 5.01, 5.7, 6.14, 6.14, 5.7, 5.7, 5.81, 5.7, 6.14, 5.34, 5.2, 2.8, 1.58, 3.22, 4.66, 4.66, 3.6, 3.2, 3.2, 2.98, 2.8, 4.15, 6.65, 8.87, 10.82, 3.7, -3.72, -3.72, -2.23, -4.09, -6.25, -7.46, -7.54, -4.22, 0.0, 3.04, 3.04, 2.35, 1.27, 0.0, -0.53, 0.0, 0.7, 0.0, 1.3, 1.88, 1.33, 0.65, 0.0, 0.0, 0.0, 1.1, 1.1, 1.73, 2.26, 2.75, 2.96, 2.96, 3.42, 3.21, 3.21, 3.21, 3.21, 2.77, 3.0, 3.0, 2.8, 2.32, 2.32, 2.32, 2.16, 1.84, 1.7, 1.16, 1.05, 0.58, 0.57, 0.57, 0.57, 0.58, 0.53, 0.0, 0.0, 0.0, 0.0, 0.0, 0.0, 0.0, 0.0, 0.57, 0.56, 0.56, 0.56, 0.57, 1.16, 2.26, 4.08, 4.21, 5.37, 6.4, 6.79, 7.06, 6.14, 6.14, 5.7, 5.7, 5.7, 4.66, 5.34, 5.2, 3.13, 2.53, 3.58, 4.38, 3.95, 3.9, 3.6, 3.47, 4.24, 3.2, 3.22, 3.58, 5.71, 7.11, 1.27, -1.58, -3.58, -4.29, -5.75, -7.95, -8.48, -7.33, -4.29, -1.36, 0.0, 0.76, 0.0, 0.0, 0.0, 1.88, 3.84, 2.2, 3.32, 3.4, 2.04, 0.0, 0.0, 0.0, 0.0, 1.18, 1.18, 1.73, 2.26, 2.26, 2.75, 2.96, 2.96, 3.42, 3.42, 3.42, 2.96, 2.96, 2.77, 2.77, 2.77, 2.29, 2.29, 2.14, 2.32, 1.8, 1.67, 1.14, 1.14, 1.14, 0.57, 0.56, 0.61, 1.12, 0.58, 0.58, 0.0, 0.0, 0.0, 0.0, 0.0, 0.0, 0.57, 0.57, 0.57, 0.56, 0.56, 0.57, 1.16, 2.26, 3.4, 4.05, 4.73, 5.06, 6.28, 6.79, 7.31, 6.61, 6.14, 5.7, 4.77, 4.24, 4.47, 6.14, 6.14, 4.47, 2.6, 3.04, 4.02, 4.38, 4.38, 4.38, 3.58, 3.51, 1.79, 0.88, 2.34, 7.7, 8.83, 3.78, 0.0, -3.07, -3.32, -6.23, -6.55, -8.67, -7.85, -5.59, -3.37, -1.54, 0.0, 1.16, 2.5, 3.32, 5.2, 6.7, 4.67, 3.6, 2.35, 0.61, 0.0, 0.0, 0.0, 1.18, 1.18, 1.73, 1.73, 2.26, 2.26, 2.75, 2.96, 2.96, 3.42, 2.96, 2.96, 2.96, 2.96, 2.77, 2.77, 2.29, 2.29, 2.29, 2.29, 1.65, 1.8, 1.14, 1.14, 1.23, 1.12, 0.56, 1.1, 1.2, 1.12, 1.12, 0.57, 0.56, 0.0, 0.0, 0.0, 0.54, 0.57, 0.57, 0.57, 1.12, 0.56, 0.56, 1.16, 2.4, 3.4, 4.05, 4.05, 5.08, 6.41, 7.26, 6.94, 7.52, 7.06, 5.81, 4.8, 4.24, 4.92, 6.61, 7.06, 6.23, 4.34, 3.13, 4.38, 4.92, 4.92, 4.92, 4.47, 4.38, 2.84, 1.7, 2.28, 6.2, 11.02, 12.21, 7.71, -0.59, -3.58, -2.24, -1.34, -2.68, -4.73, -5.09, -4.02, -1.23, 0.61, 3.07, 3.74, 3.74, 4.73, 6.4, 5.98, 4.28, 2.66, 1.27, 0.65, 0.65, 0.65, 1.18, 1.18, 1.73, 1.73, 2.4, 2.4, 2.92, 2.75, 2.96, 2.96, 2.96, 2.96, 2.96, 2.96, 2.96, 2.96, 2.29, 2.29, 2.29, 2.29, 1.76, 1.65, 1.8, 1.14, 1.12, 1.12, 1.1, 1.1, 1.1, 1.12, 1.12, 1.12, 1.2, 0.56, 0.55, 0.58, 0.57, 0.57, 1.14, 1.14, 1.2, 1.2, 1.14, 1.14, 2.4, 3.4, 4.05, 4.05, 4.75, 6.03, 6.79, 6.94, 6.47, 5.99, 6.28, 5.34, 5.7, 5.81, 5.75, 5.81, 6.23, 5.75, 5.36, 5.31, 6.26, 4.92, 4.47, 3.58, 3.95, 3.79, 2.47, 1.65, 3.11, 7.25, 11.73, 14.6, 7.93, -1.6, -0.65, 1.24, 2.24, 0.45, -0.63, -0.6, 0.0, 1.9, 3.45, 4.8, 4.4, 4.24, 4.93, 5.69, 5.95, 4.71, 4.14, 2.72, 1.47, 1.47, 1.09, 1.09, 1.71, 1.71, 2.23, 2.23, 2.92, 2.92, 2.75, 2.96, 2.96, 2.96, 2.75, 2.75, 2.75, 2.96, 2.44, 2.44, 2.44, 2.44, 2.29, 1.76, 1.65, 1.12, 1.12, 1.12, 1.1, 1.18, 1.18, 1.1, 1.2, 1.12, 1.12, 1.1, 1.18, 0.58, 0.57, 1.14, 1.14, 1.14, 1.14, 1.14, 1.69, 2.23, 2.96, 2.96, 2.96, 4.08, 4.75, 6.28, 6.94, 6.6, 6.04, 5.99, 6.3, 7.21, 6.79, 7.15, 6.26, 5.81, 5.59, 5.75, 5.81, 5.81, 5.36, 6.26, 2.68, -0.0, 0.89, 1.8, 1.7, 0.0, -0.73, 0.0, 3.78, 6.31, 9.18, 4.48, 0.0, 0.57, 2.63, 3.58, 2.24, 1.34, 1.79, 2.17, 4.24, 5.86, 6.4, 5.43, 3.83, 4.43, 6.2, 6.53, 6.29, 5.54, 4.31, 4.31, 1.16, 1.16, 1.71, 1.71, 2.23, 2.23, 2.92, 2.92, 2.92, 2.75, 2.75, 2.75, 2.75, 2.75, 2.75, 2.75, 2.75, 2.26, 2.26, 2.26, 2.26, 1.76, 1.76, 1.65, 1.12, 1.2, 1.1, 1.18, 1.18, 1.18, 1.63, 1.65, 1.12, 1.2, 1.18, 1.16, 1.16, 1.14, 1.14, 1.14, 1.14, 1.14, 1.71, 2.4, 3.09, 2.77, 2.32, 3.49, 5.75, 6.79, 6.51, 6.16, 6.14, 6.04, 6.94, 7.4, 8.43, 7.97, 6.71, 6.26, 6.02, 6.02, 5.81, 5.81, 5.81, 5.81, 4.02, 0.0, -1.6, -1.26, 0.76, 1.65, -0.61, -4.93, -4.65, -3.04, 0.77, 5.51, 3.91, 0.0, -0.0, 1.7, 1.7, 2.91, 3.82, 5.16, 5.64, 5.34, 5.46, 5.09, 4.12, 4.11, 4.94, 6.04, 6.21, 6.14, 5.6, 5.6, 1.16, 1.16, 1.71, 1.71, 2.23, 2.23, 2.73, 2.92, 2.92, 2.92, 2.92, 2.92, 2.92, 2.92, 2.92, 2.75, 2.75, 2.26, 2.26, 2.26, 2.26, 1.73, 1.73, 1.76, 1.76, 1.2, 1.1, 1.18, 1.18, 1.18, 1.63, 1.65, 1.12, 1.12, 1.1, 1.09, 1.16, 1.16, 1.14, 1.14, 1.14, 1.16, 1.71, 2.26, 2.92, 3.27, 2.35, 4.11, 5.75, 6.51, 6.3, 6.47, 6.16, 6.6, 7.06, 6.94, 7.06, 7.06, 7.15, 6.21, 6.21, 6.21, 5.36, 4.92, 5.75, 6.26, 7.11, 2.6, -0.45, -2.54, 0.0, 3.27, 3.11, -3.64, -10.01, -8.6, -3.91, 0.0, 3.96, 2.28, -1.2, -0.4, 1.34, 3.7, 6.51, 6.54, 6.54, 5.69, 5.09, 5.09, 5.09, 4.81, 5.21, 5.52, 5.54, 5.6, 5.52, 5.52, 1.16, 1.16, 1.71, 1.71, 2.23, 2.23, 2.23, 2.73, 2.92, 2.92, 2.92, 2.92, 2.92, 2.92, 2.92, 2.92, 2.75, 2.26, 2.26, 2.4, 2.26, 2.26, 1.73, 1.73, 1.76, 1.2, 1.1, 1.18, 1.18, 1.18, 1.2, 1.65, 1.23, 1.12, 1.2, 1.18, 1.16, 1.16, 1.16, 1.14, 1.14, 1.16, 1.71, 2.26, 2.26, 2.99, 3.91, 4.75, 5.86, 6.28, 6.51, 6.72, 6.47, 6.61, 6.6, 6.47, 6.47, 6.61, 6.68, 7.15, 6.26, 5.81, 4.92, 4.38, 4.66, 4.4, 5.75, 7.2, 4.74, 0.0, 0.0, 2.53, 5.3, 2.34, -5.3, -9.2, -6.68, -3.8, -1.54, 0.77, -0.67, -0.99, 0.89, 4.11, 6.28, 7.08, 7.23, 5.72, 5.38, 5.09, 4.8, 4.12, 4.29, 4.2, 4.8, 4.92, 4.77, 4.77, 1.14, 1.14, 1.14, 1.81, 1.81, 2.37, 2.23, 2.73, 2.92, 2.92, 2.92, 2.92, 2.92, 2.92, 2.92, 2.92, 2.4, 2.4, 2.4, 2.23, 2.23, 2.23, 1.73, 1.73, 1.63, 1.2, 1.1, 1.1, 1.65, 1.2, 1.12, 1.8, 1.8, 1.12, 1.2, 1.18, 1.09, 1.16, 1.16, 1.14, 1.07, 1.16, 1.71, 2.26, 2.4, 2.73, 3.37, 4.73, 5.06, 5.86, 6.28, 6.51, 6.3, 6.16, 5.78, 5.7, 5.99, 6.16, 6.68, 6.71, 6.71, 5.36, 4.02, 3.58, 2.54, 2.53, 2.84, 4.02, 5.37, 3.68, 1.98, 0.85, 2.4, 5.46, 0.78, -4.24, -4.87, -3.84, -3.8, -2.09, 0.0, 0.0, 0.57, 3.72, 5.21, 5.86, 5.88, 5.69, 4.43, 4.66, 4.24, 3.83, 3.43, 4.07, 4.23, 3.53, 3.6, 3.6, 1.14, 1.14, 1.14, 1.69, 1.69, 1.81, 2.23, 2.73, 2.92, 2.92, 2.92, 2.92, 2.92, 2.92, 2.92, 2.92, 2.4, 2.23, 2.23, 2.23, 2.23, 1.71, 1.84, 1.73, 1.73, 1.63, 1.1, 1.1, 1.18, 1.55, 1.65, 1.65, 1.65, 1.65, 1.2, 1.18, 1.09, 1.16, 1.16, 1.14, 1.16, 1.16, 1.73, 2.26, 2.92, 2.89, 3.37, 4.08, 5.06, 5.86, 6.28, 6.28, 6.1, 5.99, 5.78, 5.78, 5.7, 6.16, 6.6, 6.68, 6.26, 4.47, 4.47, 3.58, 2.68, 3.6, 2.6, 2.0, 3.16, 3.91, 3.11, 0.88, -0.82, 0.0, 2.37, -0.66, -2.24, -1.86, -2.6, -2.15, 0.0, 0.69, 0.7, 1.9, 3.88, 4.07, 3.83, 4.12, 2.84, 3.32, 3.51, 2.91, 2.79, 2.8, 2.63, 3.07, 2.82, 2.82, 0.57, 0.57, 1.14, 1.14, 1.14, 1.71, 2.23, 2.23, 2.92, 2.92, 2.92, 2.92, 2.92, 2.92, 2.73, 2.73, 2.23, 2.23, 2.23, 2.23, 2.23, 1.71, 1.71, 1.73, 1.73, 1.63, 1.1, 1.18, 1.18, 1.18, 1.73, 1.76, 1.65, 1.65, 1.2, 1.18, 1.09, 1.16, 1.07, 1.07, 0.58, 1.09, 1.73, 2.26, 2.92, 3.4, 3.6, 4.08, 5.06, 5.86, 6.13, 6.13, 5.75, 6.3, 5.78, 5.81, 5.78, 6.16, 6.6, 6.68, 6.71, 5.36, 4.92, 4.92, 4.02, 3.47, 3.13, 2.68, 2.53, 4.02, 4.56, 2.26, 0.0, -1.62, 0.77, 2.31, 0.0, -1.6, -1.35, -1.36, 0.0, 0.67, 0.67, 1.58, 2.24, 2.91, 2.84, 2.86, 2.5, 2.91, 3.07, 2.54, 1.9, 1.41, 0.69, 2.1, 2.06, 2.06, 0.56, 0.56, 0.57, 0.57, 1.16, 1.71, 2.23, 2.4, 2.92, 2.92, 2.92, 2.92, 2.92, 2.92, 2.73, 2.23, 2.23, 2.23, 2.23, 2.23, 1.71, 1.71, 1.71, 1.73, 1.73, 1.73, 1.1, 1.18, 1.18, 1.18, 1.73, 1.76, 1.65, 1.65, 1.2, 1.18, 1.16, 1.16, 1.16, 1.16, 0.58, 1.18, 1.63, 2.44, 3.42, 3.4, 3.4, 4.08, 5.06, 5.86, 6.28, 6.13, 5.75, 6.0, 6.04, 6.23, 6.26, 6.23, 6.16, 6.68, 6.26, 6.26, 5.36, 4.92, 4.47, 4.02, 2.68, 2.68, 2.98, 3.35, 4.29, 4.44, 2.28, 0.0, 0.0, 2.31, 2.4, 0.0, -0.76, -1.52, -0.7, 0.0, 0.64, 1.86, 2.17, 2.68, 2.49, 2.4, 2.5, 2.68, 2.5, 2.15, 1.58, 0.76, 0.0, 0.0, 1.33, 1.33, 0.0, 0.0, 0.0, 0.0, 0.55, 1.73, 2.26, 2.92, 2.92, 2.92, 2.92, 2.92, 2.73, 2.73, 2.23, 2.37, 2.37, 2.37, 2.23, 2.23, 1.71, 1.71, 1.71, 1.73, 1.73, 1.73, 1.18, 1.18, 1.18, 1.18, 1.63, 1.76, 1.65, 1.65, 1.2, 1.18, 1.09, 1.16, 1.16, 0.58, 0.55, 0.59, 1.63, 2.29, 2.96, 3.42, 3.4, 4.1, 5.06, 5.59, 6.03, 6.28, 5.75, 5.75, 6.3, 6.6, 6.23, 5.78, 5.7, 6.68, 7.15, 5.81, 5.36, 4.02, 3.58, 3.58, 0.89, 2.0, 2.6, 3.58, 4.74, 4.71, 5.4, 3.19, 0.0, 0.0, 2.99, 3.02, 0.73, 0.0, 0.0, 0.0, 0.0, 1.7, 2.4, 2.6, 2.68, 2.91, 3.07, 2.79, 2.53, 2.21, 1.49, 1.4, 0.66, 0.7, 0.0, 0.0, 0.0, 0.0, 0.0, 0.0, 0.59, 1.63, 2.26, 2.75, 2.92, 2.92, 2.73, 2.73, 2.73, 2.89, 2.37, 2.37, 2.37, 2.37, 2.37, 2.23, 1.71, 1.71, 1.71, 1.73, 1.73, 1.73, 1.18, 1.18, 1.18, 1.18, 1.63, 1.76, 1.65, 1.65, 1.2, 1.18, 1.09, 1.16, 1.16, 0.58, 0.55, 0.59, 1.76, 2.51, 3.0, 2.96, 3.42, 4.1, 5.35, 5.93, 6.41, 5.86, 5.75, 5.75, 6.3, 6.47, 6.23, 6.23, 6.23, 6.71, 7.15, 6.26, 5.36, 3.58, 3.58, 3.58, 2.68, 3.04, 3.2, 3.58, 4.54, 5.37, 6.97, 5.73, 1.45, -1.49, -0.61, 0.8, 1.54, 0.69, 1.36, 1.47, 0.66, 1.7, 2.6, 3.13, 3.07, 3.32, 3.14, 2.84, 2.23, 1.84, 1.84, 1.41, 0.81, 0.67, 0.0, 0.0, 0.0, 0.0, 0.0, 0.0, 1.1, 2.29, 2.44, 2.75, 2.92, 2.92, 2.73, 2.89, 2.89, 2.89, 2.37, 2.37, 2.37, 2.37, 2.37, 1.81, 1.71, 1.71, 1.71, 1.73, 1.73, 1.73, 1.18, 1.18, 1.18, 1.18, 1.63, 1.76, 1.65, 1.65, 1.2, 1.1, 1.09, 1.16, 1.16, 0.58, 0.55, 0.59, 1.65, 2.51, 2.77, 2.96, 3.45, 4.45, 5.35, 5.59, 5.59, 5.86, 5.75, 5.75, 6.1, 6.47, 6.16, 6.16, 6.23, 6.71, 7.15, 6.71, 5.81, 3.58, 3.58, 4.47, 4.92, 4.85, 4.66, 4.66, 5.09, 6.13, 5.98, 6.28, 5.55, -2.41, -7.11, -4.71, -1.36, 0.0, 1.36, 2.06, 1.35, 1.26, 2.12, 2.68, 3.07, 3.45, 2.79, 2.73, 1.8, 1.27, 1.27, 0.78, 0.74, 0.0, 0.0, 0.0, 0.0, 0.0, 0.0, 0.55, 1.63, 2.29, 2.96, 2.75, 2.92, 2.92, 2.73, 2.89, 2.89, 2.37, 2.37, 2.37, 2.37, 2.21, 2.37, 1.81, 1.71, 1.71, 1.71, 1.73, 1.73, 1.73, 1.18, 1.18, 1.18, 1.18, 1.63, 1.76, 1.65, 1.12, 1.2, 1.1, 1.09, 1.16, 0.58, 0.58, 0.55, 0.56, 1.65, 2.32, 3.09, 2.96, 3.45, 4.45, 5.35, 5.35, 5.59, 5.86, 5.49, 5.75, 6.0, 6.3, 6.47, 6.23, 6.23, 6.71, 7.15, 6.71, 4.92, 4.92, 4.47, 4.92, 4.47, 4.85, 5.09, 5.09, 5.09, 4.84, 4.71, 6.67, 9.14, 2.35, -7.15, -9.26, -4.74, 0.0, 1.16, 1.41, 1.36, 0.54, 1.34, 2.24, 2.8, 2.53, 2.0, 2.2, 0.7, 0.0, 0.0, 0.0, 0.0, -0.77, -0.71, 0.0, 0.0, 0.0, 0.57, 1.16, 1.73, 2.44, 2.96, 2.92, 2.92, 2.73, 2.89, 2.89, 2.89, 2.37, 2.37, 2.21, 2.21, 2.21, 1.69, 1.81, 1.71, 1.71, 1.71, 1.73, 1.73, 1.73, 1.18, 1.18, 1.18, 1.18, 1.18, 1.76, 1.65, 1.12, 1.2, 1.1, 1.09, 1.16, 0.58, 0.58, 0.0, 0.56, 1.12, 2.14, 2.29, 3.09, 3.85, 4.45, 5.35, 5.01, 5.29, 5.86, 5.49, 5.75, 6.0, 6.23, 6.3, 6.16, 6.23, 6.71, 7.15, 7.13, 7.06, 5.36, 5.36, 5.36, 4.02, 4.92, 4.85, 5.16, 5.09, 4.8, 4.47, 5.72, 7.95, 9.91, 0.65, -4.87, -3.53, 0.0, 1.86, 2.73, 2.82, 1.45, 0.76, 1.24, 1.61, 1.33, 0.67, 0.71, 0.0, -0.67, -1.41, -1.52, -2.39, -2.39, -2.39, -2.39, 0.59, 0.59, 1.12, 1.14, 1.71, 2.26, 2.75, 2.92, 2.92, 2.73, 2.89, 2.89, 2.37, 2.37, 2.21, 2.21, 2.21, 2.21, 1.69, 1.81, 1.71, 1.71, 1.71, 1.71, 1.73, 1.73, 1.18, 1.18, 1.18, 1.18, 1.18, 1.76, 1.76, 1.12, 1.2, 1.1, 1.09, 0.58, 0.58, 0.0, 0.0, 0.56, 1.2, 1.65, 2.29, 2.96, 3.42, 4.1, 4.74, 5.01, 5.29, 5.29, 5.49, 5.75, 6.0, 5.6, 6.04, 6.16, 6.68, 6.71, 7.15, 7.51, 6.47, 5.7, 5.36, 5.36, 5.36, 4.92, 4.85, 5.29, 5.09, 4.6, 4.74, 4.71, 5.69, 7.92, 8.62, 2.26, -0.89, -0.0, 1.6, 2.88, 3.46, 3.53, 1.44, 0.61, 0.0, 0.0, 0.0, -0.73, -0.77, -2.12, -2.82, -3.15, -3.69, -3.95, -3.95, -3.95, 1.11, 1.11, 1.11, 1.12, 1.71, 2.26, 2.75, 2.92, 2.92, 2.73, 2.89, 2.37, 2.37, 2.21, 2.21, 2.21, 2.21, 1.69, 1.69, 1.81, 1.71, 1.71, 1.71, 1.71, 1.73, 1.73, 1.18, 1.18, 1.18, 1.18, 1.18, 1.1, 1.2, 1.12, 1.2, 1.1, 0.55, 0.58, 0.58, 0.0, 0.0, 0.56, 1.2, 1.76, 2.29, 2.77, 3.45, 4.12, 4.74, 4.74, 4.94, 4.94, 5.29, 5.75, 5.75, 5.6, 6.3, 6.47, 6.6, 6.68, 7.15, 7.51, 7.4, 6.79, 5.81, 5.36, 5.36, 5.36, 4.85, 4.85, 4.57, 4.22, 4.11, 4.26, 3.88, 4.87, 7.0, 8.2, 4.75, 1.33, 0.71, 1.41, 2.15, 3.53, 2.76, 0.67, -0.61, -1.33, -1.3, -2.23, -2.17, -2.9, -3.6, -4.71, -4.6, -4.6, -4.6, -4.6, 1.11, 1.11, 1.11, 1.12, 1.69, 2.4, 2.92, 2.92, 2.73, 2.73, 2.89, 2.37, 2.21, 2.21, 2.21, 2.21, 1.69, 1.69, 1.69, 1.71, 1.71, 1.71, 1.71, 1.71, 1.61, 1.73, 1.18, 1.18, 1.18, 1.18, 1.18, 1.1, 1.2, 1.12, 1.2, 0.56, 0.55, 0.58, 0.0, 0.0, 0.0, 0.56, 1.2, 1.76, 2.29, 2.77, 3.45, 4.12, 4.74, 4.43, 4.71, 4.71, 4.94, 5.21, 5.37, 5.81, 6.23, 6.47, 6.6, 6.68, 7.15, 7.51, 7.26, 6.3, 6.14, 4.92, 4.92, 4.47, 4.41, 4.85, 4.8, 4.22, 4.11, 3.79, 4.0, 3.78, 4.75, 7.11, 8.74, 7.01, 4.71, 2.18, 0.71, 2.15, 2.7, 1.4, -0.66, -2.23, -2.88, -2.9, -3.3, -3.64, -4.56, -5.49, -5.38, -5.38, -5.38, -5.38, 1.11, 1.11, 1.11, 1.18, 1.69, 2.4, 2.92, 2.92, 2.73, 2.73, 2.37, 2.37, 2.21, 2.21, 2.21, 1.69, 1.69, 1.69, 1.69, 1.69, 1.71, 1.71, 1.71, 1.71, 1.61, 1.73, 1.18, 1.18, 1.18, 1.18, 1.18, 1.1, 1.2, 1.2, 1.1, 0.59, 0.55, 0.58, 0.0, 0.0, 0.0, 0.56, 1.2, 1.76, 2.29, 3.0, 3.45, 4.12, 3.84, 4.43, 4.71, 4.71, 5.21, 5.21, 5.21, 5.81, 5.81, 6.3, 6.47, 6.68, 7.15, 7.58, 7.4, 6.79, 5.7, 4.92, 4.92, 4.47, 4.41, 4.38, 4.15, 4.22, 3.79, 3.33, 3.91, 4.0, 4.8, 6.1, 7.69, 8.84, 8.46, 6.1, 1.52, 0.0, 0.69, 0.71, -0.76, -2.73, -4.01, -4.71, -3.68, -2.84, -4.11, -4.65, -4.83, -4.56, -4.56, -4.56, 0.59, 0.59, 0.56, 1.12, 1.71, 2.26, 2.92, 2.92, 2.23, 2.37, 2.37, 2.21, 2.21, 2.21, 1.69, 1.69, 1.69, 1.69, 1.69, 1.69, 1.71, 1.71, 1.71, 1.71, 1.73, 1.73, 1.18, 1.18, 1.18, 1.18, 1.18, 1.1, 1.2, 1.2, 1.1, 0.59, 0.58, 0.58, 0.0, 0.0, 0.0, 0.56, 1.2, 1.76, 2.29, 3.0, 3.45, 3.47, 3.84, 4.12, 4.43, 4.71, 4.71, 5.21, 5.47, 5.81, 5.81, 5.81, 6.47, 6.68, 7.15, 7.58, 7.4, 6.79, 6.14, 5.36, 4.92, 4.47, 4.92, 4.38, 4.38, 4.57, 4.19, 4.01, 4.65, 5.1, 5.28, 6.33, 7.54, 8.66, 8.61, 8.51, 6.1, 0.63, -0.61, -0.63, -0.63, -2.73, -3.79, -2.15, -1.4, -1.9, -2.5, -2.53, -3.16, -2.84, -2.84, -2.84, 0.59, 0.59, 0.56, 1.14, 1.71, 2.26, 2.92, 2.23, 2.23, 2.37, 2.37, 2.21, 2.21, 1.69, 1.69, 1.69, 1.69, 1.69, 1.69, 1.69, 1.71, 1.71, 1.71, 1.71, 1.73, 1.18, 1.18, 1.18, 1.18, 1.18, 1.18, 1.1, 1.2, 1.2, 1.1, 0.59, 0.58, 0.54, 0.0, 0.0, 0.56, 0.56, 1.2, 1.76, 2.29, 3.0, 3.22, 3.47, 3.47, 4.12, 4.12, 4.71, 4.71, 4.71, 5.08, 5.08, 5.4, 5.81, 6.04, 6.61, 7.15, 7.58, 7.26, 6.6, 5.88, 6.14, 5.36, 4.92, 4.47, 3.9, 3.74, 4.57, 4.8, 5.15, 5.43, 6.01, 6.24, 7.08, 8.01, 8.37, 8.05, 9.17, 10.87, 6.11, -0.71, -1.86, -1.88, -1.84, -1.84, -1.88, -1.24, -0.6, -0.95, -1.86, -1.9, -1.9, -1.9, -1.9, 0.59, 0.59, 0.56, 1.07, 1.73, 2.26, 2.4, 2.23, 2.23, 2.37, 2.21, 1.69, 1.69, 1.69, 1.69, 1.69, 1.69, 1.69, 1.69, 1.81, 1.71, 1.71, 1.71, 1.09, 1.18, 1.18, 1.18, 1.18, 1.18, 1.18, 1.18, 1.1, 1.2, 1.2, 0.56, 0.59, 0.58, 0.0, 0.0, 0.0, 0.56, 0.56, 1.1, 1.76, 2.29, 2.8, 2.8, 3.47, 3.47, 3.84, 4.12, 4.43, 4.71, 4.71, 4.84, 5.08, 5.31, 5.4, 5.99, 6.6, 7.15, 7.13, 7.4, 6.6, 6.0, 5.09, 5.36, 4.92, 4.02, 3.47, 2.54, 2.68, 5.09, 5.75, 6.44, 6.39, 6.64, 6.95, 7.82, 8.37, 8.56, 8.99, 11.37, 11.91, 2.2, -2.12, -1.2, -0.42, 0.0, -0.53, -0.57, 0.0, 0.0, -0.89, -1.7, -1.86, -1.86, -1.86, 0.0, 0.0, 0.56, 1.16, 2.26, 2.26, 2.23, 2.23, 2.37, 2.37, 1.69, 1.69, 1.69, 1.69, 1.69, 1.69, 1.69, 1.69, 1.69, 1.81, 1.71, 1.16, 1.16, 1.09, 1.18, 1.18, 1.18, 1.18, 1.18, 1.18, 1.18, 1.1, 1.2, 1.2, 0.56, 0.55, 0.58, 0.0, 0.0, 0.55, 0.56, 1.1, 1.1, 1.76, 2.29, 2.8, 2.8, 3.04, 3.47, 3.47, 4.12, 4.12, 4.71, 5.01, 4.84, 5.08, 5.31, 5.31, 5.57, 6.16, 6.71, 7.15, 6.94, 6.6, 5.75, 5.2, 5.29, 5.36, 5.31, 4.85, 3.74, 2.6, 2.24, 5.29, 6.28, 7.03, 7.06, 7.02, 7.97, 8.01, 8.29, 7.79, 8.72, 10.12, 6.31, -0.61, -0.0, 0.0, 0.0, 0.61, 0.54, 0.0, -0.89, -0.89, -1.34, -1.7, -1.7, -1.7, 0.0, 0.0, 0.57, 1.61, 1.73, 2.26, 2.23, 2.23, 2.37, 1.69, 1.69, 1.69, 1.69, 1.69, 1.69, 1.69, 1.69, 1.14, 1.14, 1.16, 1.16, 1.16, 1.09, 1.18, 1.18, 1.18, 1.18, 1.18, 1.18, 1.18, 1.18, 1.1, 1.2, 1.2, 0.56, 0.55, 0.0, 0.0, 0.0, 0.55, 0.56, 0.56, 1.1, 1.76, 2.29, 2.32, 2.8, 2.8, 3.04, 3.47, 3.76, 4.12, 4.12, 4.37, 4.65, 5.08, 5.08, 5.31, 5.57, 5.7, 6.26, 6.71, 6.61, 6.79, 5.75, 4.65, 4.8, 5.31, 5.81, 5.75, 5.59, 5.75, 4.24, 4.02, 5.75, 6.4, 7.07, 7.41, 6.95, 7.08, 7.9, 7.79, 6.43, 5.46, 1.2, -0.0, -0.0, -0.45, 0.0, 1.24, 2.21, 0.57, -1.34, -1.6, -1.2, -1.79, -1.79, -1.79, 0.0, 0.0, 0.57, 1.73, 1.73, 2.4, 2.23, 1.71, 1.81, 1.69, 1.69, 1.69, 1.69, 1.69, 1.14, 1.14, 1.14, 1.14, 1.14, 1.16, 1.16, 1.16, 1.09, 1.18, 1.18, 1.18, 1.18, 1.18, 1.18, 1.18, 1.18, 1.1, 1.2, 0.61, 0.56, 0.55, 0.0, 0.0, 0.0, 0.59, 0.56, 0.56, 1.1, 1.76, 1.76, 2.32, 2.8, 2.8, 3.04, 3.47, 3.47, 4.12, 3.83, 4.37, 4.65, 4.65, 5.08, 5.31, 5.51, 5.7, 5.78, 6.26, 6.68, 6.51, 5.89, 4.71, 4.11, 4.22, 4.92, 5.36, 5.75, 6.02, 5.75, 5.09, 5.29, 6.51, 7.03, 7.41, 6.53, 6.42, 6.97, 7.01, 6.2, 3.91, 1.34, -0.0, -0.0, 0.89, 1.34, 2.6, 3.14, 1.84, 0.0, -1.34, -1.7, -1.7, -1.7, -1.7, 0.56, 0.56, 1.16, 1.73, 1.73, 1.71, 1.71, 1.71, 1.69, 1.69, 1.69, 1.69, 1.14, 1.14, 1.14, 1.14, 1.14, 1.14, 1.16, 1.16, 1.16, 1.16, 1.09, 1.18, 1.18, 1.18, 1.18, 0.56, 0.56, 1.18, 1.1, 1.1, 1.2, 0.61, 0.56, 0.55, 0.0, 0.0, 0.58, 0.59, 0.56, 0.56, 1.1, 1.63, 1.76, 2.14, 2.32, 2.8, 2.8, 3.04, 3.47, 3.76, 4.11, 4.11, 4.65, 4.65, 4.55, 4.8, 4.9, 5.09, 5.78, 5.81, 6.23, 6.6, 6.3, 5.21, 3.79, 3.43, 3.74, 4.47, 4.47, 4.85, 5.09, 5.09, 5.36, 6.21, 7.21, 8.06, 7.59, 7.18, 6.79, 7.12, 7.88, 4.6, -0.0, 0.59, 2.4, 3.13, 3.53, 3.82, 4.73, 4.71, 1.84, 0.0, -1.34, -1.79, -1.79, -1.79, 0.56, 0.56, 1.16, 1.73, 1.73, 1.71, 1.71, 1.71, 1.69, 1.69, 1.14, 1.14, 1.14, 1.14, 1.14, 1.14, 1.14, 1.14, 1.16, 1.16, 1.16, 1.16, 1.09, 1.18, 1.18, 0.59, 0.59, 0.56, 0.56, 0.56, 1.1, 1.1, 0.61, 0.61, 0.56, 0.0, 0.0, 0.54, 0.58, 0.55, 0.56, 0.56, 1.18, 1.63, 1.76, 2.29, 2.32, 2.32, 2.8, 2.8, 3.47, 3.47, 3.83, 4.11, 4.41, 4.29, 4.55, 4.55, 4.8, 5.09, 5.24, 5.81, 5.78, 6.23, 6.04, 6.1, 5.21, 4.07, 3.2, 3.95, 4.02, 3.95, 4.15, 4.85, 4.92, 4.85, 7.11, 7.42, 7.97, 7.9, 7.48, 8.01, 9.54, 8.74, 0.63, 0.59, 4.4, 5.81, 5.67, 5.6, 5.38, 5.31, 4.46, 1.33, 0.0, -1.34, -1.34, -1.34, 0.56, 0.56, 1.16, 1.73, 1.73, 1.71, 1.71, 1.81, 1.69, 1.14, 1.14, 1.14, 1.14, 1.14, 1.14, 1.14, 1.14, 1.07, 1.16, 1.16, 1.16, 1.09, 1.09, 0.59, 0.59, 0.59, 0.56, 0.56, 0.56, 0.56, 0.56, 0.56, 0.61, 0.61, 0.56, 0.59, 0.58, 0.54, 0.58, 0.55, 0.59, 1.1, 1.18, 1.73, 1.73, 1.76, 2.29, 2.32, 2.8, 2.8, 2.8, 3.47, 3.49, 3.78, 3.79, 4.07, 4.37, 4.55, 4.8, 5.02, 5.24, 5.33, 5.36, 5.78, 6.14, 6.04, 6.0, 5.21, 4.4, 3.95, 3.58, 3.95, 3.95, 4.38, 4.47, 3.04, 2.6, 6.28, 6.73, 7.27, 7.18, 7.69, 8.51, 10.43, 3.91, 0.8, 4.41, 6.71, 6.42, 5.69, 5.38, 5.86, 5.62, 3.7, 0.53, -0.89, -0.89, -0.89, 0.57, 0.57, 1.16, 1.18, 1.61, 1.71, 1.16, 1.22, 1.14, 1.14, 1.14, 1.14, 1.14, 1.14, 1.14, 1.14, 1.14, 1.16, 1.16, 1.16, 0.58, 0.55, 0.55, 0.59, 0.59, 0.59, 0.56, 0.56, 0.56, 0.56, 0.56, 0.56, 0.61, 0.61, 0.56, 0.59, 0.58, 0.0, 0.58, 0.55, 0.59, 1.1, 1.73, 1.73, 1.73, 1.63, 2.29, 2.29, 2.29, 2.8, 2.8, 3.22, 3.49, 3.49, 3.49, 4.07, 4.07, 4.37, 4.4, 4.4, 4.6, 4.89, 5.36, 5.33, 5.78, 6.14, 6.0, 5.37, 4.55, 4.15, 4.02, 4.02, 4.02, 4.47, 4.92, 4.92, 4.38, 4.47, 5.15, 6.01, 6.31, 6.21, 6.28, 7.28, 7.0, 1.2, 3.43, 5.67, 6.54, 6.0, 5.0, 5.59, 5.47, 4.75, 1.41, -0.95, -0.95, -0.95, 0.57, 0.57, 1.16, 1.09, 1.16, 1.16, 1.16, 1.14, 1.14, 1.14, 1.14, 1.14, 1.14, 0.57, 0.57, 0.57, 0.54, 0.58, 0.58, 0.58, 0.55, 0.55, 0.55, 0.59, 0.59, 0.56, 0.56, 0.56, 0.56, 0.56, 0.56, 0.61, 0.61, 0.61, 0.56, 0.59, 0.0, 0.0, 0.0, 0.55, 1.1, 1.1, 1.18, 1.73, 1.73, 1.73, 2.29, 2.29, 2.29, 2.29, 2.8, 3.04, 3.22, 3.49, 3.49, 3.49, 4.07, 4.37, 4.0, 4.27, 4.6, 4.77, 4.92, 4.92, 5.33, 5.24, 5.4, 5.47, 4.55, 4.57, 4.38, 4.02, 4.02, 4.38, 4.47, 4.92, 4.02, 3.13, 4.15, 5.24, 5.38, 5.51, 4.71, 4.67, 6.4, 3.82, 2.6, 4.24, 5.86, 6.01, 4.87, 4.28, 4.15, 3.73, 2.28, -0.65, -0.65, -0.65, 0.57, 0.57, 1.16, 1.16, 1.16, 1.16, 1.16, 1.07, 1.14, 0.57, 0.57, 0.57, 0.57, 0.57, 0.57, 0.54, 0.58, 0.58, 0.58, 0.58, 0.55, 0.55, 0.59, 0.59, 0.59, 0.56, 0.56, 0.61, 0.61, 0.56, 0.61, 0.61, 0.61, 0.61, 0.56, 0.59, 0.0, 0.0, 0.0, 0.59, 1.1, 1.1, 1.18, 1.18, 1.73, 1.73, 1.73, 2.29, 2.29, 2.29, 2.77, 2.8, 2.82, 3.08, 3.22, 3.49, 3.49, 3.48, 4.0, 4.0, 4.27, 4.11, 4.34, 4.47, 4.44, 4.88, 5.24, 4.8, 4.55, 3.88, 3.82, 3.95, 3.47, 3.47, 3.47, 4.02, 4.02, 3.58, 3.47, 4.01, 4.71, 4.8, 4.71, 4.75, 5.63, 5.46, 2.51, 3.13, 4.66, 5.59, 4.96, 3.37, 2.65, 2.37, 1.52, 0.0, 0.0, 0.0, 0.57, 0.57, 1.16, 1.16, 1.16, 1.16, 0.58, 0.54, 0.57, 0.57, 0.57, 0.57, 0.54, 0.54, 0.54, 0.58, 0.58, 0.58, 0.58, 0.55, 0.55, 0.59, 0.59, 0.59, 0.59, 0.56, 0.61, 0.61, 0.61, 0.61, 0.61, 0.61, 0.57, 0.61, 0.56, 0.0, 0.0, 0.0, 0.55, 0.59, 1.1, 1.1, 1.18, 1.18, 1.18, 1.73, 1.73, 2.26, 2.29, 2.29, 2.77, 2.8, 3.04, 2.82, 3.08, 3.22, 3.49, 3.49, 3.48, 3.78, 3.43, 3.88, 4.11, 3.98, 4.02, 3.98, 4.43, 4.11, 4.27, 3.88, 3.6, 3.9, 3.47, 3.82, 3.04, 3.47, 3.58, 3.58, 3.58, 3.58, 4.03, 3.95, 4.81, 4.85, 6.31, 7.22, 5.28, 3.49, 4.75, 5.52, 5.62, 4.23, 2.76, 2.14, 1.39, 0.0, 0.0, 0.0, 0.54, 0.54, 0.58, 0.58, 0.58, 0.58, 0.58, 0.54, 0.54, 0.57, 0.57, 0.54, 0.0, 0.0, 0.58, 0.58, 0.58, 0.58, 0.55, 0.55, 0.55, 0.59, 0.59, 0.59, 0.59, 0.56, 0.56, 0.61, 0.61, 0.61, 0.61, 0.61, 0.57, 0.61, 0.56, 0.0, 0.0, 0.58, 0.55, 0.59, 0.59, 0.59, 1.18, 1.18, 1.18, 1.73, 1.73, 1.73, 2.26, 2.44, 2.77, 3.0, 2.8, 3.04, 2.82, 3.08, 2.84, 3.49, 3.2, 3.48, 3.16, 3.43, 3.35, 3.6, 3.53, 3.58, 3.58, 3.97, 3.6, 3.6, 3.6, 3.39, 3.39, 3.82, 3.47, 3.04, 3.58, 4.02, 3.58, 4.0, 3.22, 3.88, 3.91, 4.76, 6.37, 8.71, 7.93, 6.24, 6.01, 6.05, 6.33, 5.4, 4.08, 2.76, 1.39, 0.0, 0.0, 0.0, 0.54, 0.54, 0.58, 0.58, 0.58, 0.58, 0.58, 0.54, 0.54, 0.57, 0.57, 0.54, 0.0, 0.0, 0.58, 0.58, 0.58, 0.58, 0.55, 0.55, 0.55, 0.59, 0.59, 0.59, 0.59, 0.56, 0.56, 0.61, 0.61, 0.61, 0.61, 0.61, 0.57, 0.61, 0.56, 0.0, 0.0, 0.58, 0.55, 0.59, 0.59, 0.59, 1.18, 1.18, 1.18, 1.73, 1.73, 1.73, 2.26, 2.44, 2.77, 3.0, 2.8, 3.04, 2.82, 3.08, 2.84, 3.49, 3.2, 3.48, 3.16, 3.43, 3.35, 3.6, 3.53, 3.58, 3.58, 3.97, 3.6, 3.6, 3.6, 3.39, 3.39, 3.82, 3.47, 3.04, 4.02, 4.02, 3.58, 4.0, 3.22, 3.27, 3.95, 4.65, 6.17, 8.03, 9.39, 8.46, 7.59, 7.08, 7.12, 6.9, 6.0, 4.71, 2.99, 0.69, 0.69, 0.69]}]